Time,TemperatureF,DewpointF,PressureIn,WindDirection,WindDirectionDegrees,WindSpeedMPH,WindSpeedGustMPH,Humidity,HourlyPrecipIn,Conditions,Clouds,dailyrainin,SoftwareType,DateUTC
2013-03-21 00:00:00,25.9,11.9,29.47,WNW,294,0.0,0.0,55,0.00,,,0.20,VWS V14.01,2013-03-21 04:00:00,
2013-03-21 00:01:00,25.9,11.9,29.47,WNW,294,0.0,0.0,55,0.00,,,0.00,VWS V14.01,2013-03-21 04:01:00,
2013-03-21 00:02:00,25.9,11.9,29.47,WNW,294,0.0,0.0,55,0.00,,,0.00,VWS V14.01,2013-03-21 04:02:00,
2013-03-21 00:03:00,25.9,11.9,29.47,WNW,294,0.0,0.0,55,0.00,,,0.00,VWS V14.01,2013-03-21 04:03:00,
2013-03-21 00:04:00,25.9,11.9,29.47,WNW,294,0.0,0.0,55,0.00,,,0.00,VWS V14.01,2013-03-21 04:04:00,
2013-03-21 00:05:00,25.5,12.0,29.47,WNW,294,0.0,0.0,56,0.00,,,0.00,VWS V14.01,2013-03-21 04:05:00,
2013-03-21 00:06:00,25.5,12.0,29.47,WNW,294,0.0,0.0,56,0.00,,,0.00,VWS V14.01,2013-03-21 04:06:00,
2013-03-21 00:08:00,25.5,12.0,29.47,WNW,294,0.0,0.0,56,0.00,,,0.00,VWS V14.01,2013-03-21 04:08:00,
2013-03-21 00:09:00,25.5,12.0,29.47,WNW,294,0.0,0.0,56,0.00,,,0.00,VWS V14.01,2013-03-21 04:09:00,
2013-03-21 00:10:00,25.5,12.0,29.47,WNW,294,0.0,0.0,56,0.00,,,0.00,VWS V14.01,2013-03-21 04:10:00,
2013-03-21 00:11:00,25.5,12.0,29.47,WNW,294,0.0,0.0,56,0.00,,,0.00,VWS V14.01,2013-03-21 04:11:00,
2013-03-21 00:12:00,25.3,11.9,29.47,WNW,294,0.0,0.0,56,0.00,,,0.00,VWS V14.01,2013-03-21 04:12:00,
2013-03-21 00:13:00,25.3,11.9,29.47,WNW,294,0.0,0.0,56,0.00,,,0.00,VWS V14.01,2013-03-21 04:13:00,
2013-03-21 00:15:00,25.3,11.9,29.47,WNW,294,0.0,0.0,56,0.00,,,0.00,VWS V14.01,2013-03-21 04:15:00,
2013-03-21 00:17:00,25.3,11.9,29.47,WNW,294,0.0,0.0,56,0.00,,,0.00,VWS V14.01,2013-03-21 04:17:00,
2013-03-21 00:18:00,25.3,11.9,29.47,WNW,294,0.0,0.0,56,0.00,,,0.00,VWS V14.01,2013-03-21 04:18:00,
2013-03-21 00:19:00,25.3,11.9,29.47,WNW,294,0.0,0.0,56,0.00,,,0.00,VWS V14.01,2013-03-21 04:19:00,
2013-03-21 00:20:00,25.3,11.9,29.47,WNW,294,0.0,0.0,56,0.00,,,0.00,VWS V14.01,2013-03-21 04:20:00,
2013-03-21 00:21:00,25.3,11.9,29.47,WNW,294,0.0,0.0,56,0.00,,,0.00,VWS V14.01,2013-03-21 04:21:00,
2013-03-21 00:22:00,25.3,11.9,29.47,WNW,294,0.0,0.0,56,0.00,,,0.00,VWS V14.01,2013-03-21 04:22:00,
2013-03-21 00:23:00,25.2,11.7,29.47,WNW,294,0.0,0.0,56,0.00,,,0.00,VWS V14.01,2013-03-21 04:23:00,
2013-03-21 00:24:00,25.2,11.7,29.47,WNW,294,0.0,0.0,56,0.00,,,0.00,VWS V14.01,2013-03-21 04:24:00,
2013-03-21 00:25:00,25.2,11.7,29.47,WNW,294,0.0,0.0,56,0.00,,,0.00,VWS V14.01,2013-03-21 04:25:00,
2013-03-21 00:26:00,25.2,11.7,29.47,WNW,294,0.0,0.0,56,0.00,,,0.00,VWS V14.01,2013-03-21 04:26:00,
2013-03-21 00:27:00,25.2,11.7,29.47,WNW,294,0.0,0.0,56,0.00,,,0.00,VWS V14.01,2013-03-21 04:27:00,
2013-03-21 00:28:00,25.2,11.7,29.47,WNW,294,0.0,0.0,56,0.00,,,0.00,VWS V14.01,2013-03-21 04:28:00,
2013-03-21 00:29:00,25.2,11.7,29.47,WNW,294,0.0,0.0,56,0.00,,,0.00,VWS V14.01,2013-03-21 04:29:00,
2013-03-21 00:30:00,25.2,11.7,29.47,WNW,294,0.0,0.0,56,0.00,,,0.00,VWS V14.01,2013-03-21 04:30:00,
2013-03-21 00:31:00,25.2,11.7,29.47,WNW,294,0.0,0.0,56,0.00,,,0.00,VWS V14.01,2013-03-21 04:31:00,
2013-03-21 00:32:00,24.8,11.7,29.47,WNW,294,0.0,0.0,57,0.00,,,0.00,VWS V14.01,2013-03-21 04:32:00,
2013-03-21 00:33:00,24.8,11.7,29.47,WNW,294,0.0,0.0,57,0.00,,,0.00,VWS V14.01,2013-03-21 04:33:00,
2013-03-21 00:34:00,24.8,11.7,29.47,WNW,294,0.0,0.0,57,0.00,,,0.00,VWS V14.01,2013-03-21 04:34:00,
2013-03-21 00:35:00,24.8,11.7,29.47,WNW,294,0.0,0.0,57,0.00,,,0.00,VWS V14.01,2013-03-21 04:35:00,
2013-03-21 00:36:00,24.6,11.6,29.47,WNW,294,0.0,0.0,57,0.00,,,0.00,VWS V14.01,2013-03-21 04:36:00,
2013-03-21 00:37:00,24.6,11.6,29.47,WNW,294,0.0,0.0,57,0.00,,,0.00,VWS V14.01,2013-03-21 04:37:00,
2013-03-21 00:38:00,24.6,11.6,29.47,WNW,294,0.0,0.0,57,0.00,,,0.00,VWS V14.01,2013-03-21 04:38:00,
2013-03-21 00:39:00,24.6,11.6,29.47,WNW,294,0.0,0.0,57,0.00,,,0.00,VWS V14.01,2013-03-21 04:39:00,
2013-03-21 00:40:00,24.6,11.6,29.47,WNW,294,0.0,0.0,57,0.00,,,0.00,VWS V14.01,2013-03-21 04:40:00,
2013-03-21 00:41:00,24.6,11.6,29.47,WNW,294,0.0,0.0,57,0.00,,,0.00,VWS V14.01,2013-03-21 04:41:00,
2013-03-21 00:42:00,24.6,11.6,29.47,WNW,294,0.0,0.0,57,0.00,,,0.00,VWS V14.01,2013-03-21 04:42:00,
2013-03-21 00:43:00,24.6,11.6,29.47,WNW,294,0.0,0.0,57,0.00,,,0.00,VWS V14.01,2013-03-21 04:43:00,
2013-03-21 00:44:00,24.6,11.6,29.47,WNW,294,0.0,0.0,57,0.00,,,0.00,VWS V14.01,2013-03-21 04:44:00,
2013-03-21 00:45:00,24.6,11.6,29.47,WNW,294,0.0,0.0,57,0.00,,,0.00,VWS V14.01,2013-03-21 04:45:00,
2013-03-21 00:46:00,24.6,11.6,29.47,WNW,294,0.0,0.0,57,0.00,,,0.00,VWS V14.01,2013-03-21 04:46:00,
2013-03-21 00:47:00,24.6,11.6,29.47,WNW,294,0.0,0.0,57,0.00,,,0.00,VWS V14.01,2013-03-21 04:47:00,
2013-03-21 00:48:00,24.6,11.6,29.47,WNW,294,0.0,0.0,57,0.00,,,0.00,VWS V14.01,2013-03-21 04:48:00,
2013-03-21 00:49:00,24.4,12.2,29.47,WNW,294,0.0,0.0,59,0.00,,,0.00,VWS V14.01,2013-03-21 04:49:00,
2013-03-21 00:50:00,24.4,12.2,29.47,WNW,294,0.0,0.0,59,0.00,,,0.00,VWS V14.01,2013-03-21 04:50:00,
2013-03-21 00:51:00,24.4,12.2,29.47,WNW,294,0.0,0.0,59,0.00,,,0.00,VWS V14.01,2013-03-21 04:51:00,
2013-03-21 00:52:00,24.4,12.2,29.47,WNW,294,0.0,0.0,59,0.00,,,0.00,VWS V14.01,2013-03-21 04:52:00,
2013-03-21 00:53:00,24.4,12.2,29.47,WNW,294,0.0,0.0,59,0.00,,,0.00,VWS V14.01,2013-03-21 04:53:00,
2013-03-21 00:54:00,24.1,11.8,29.47,WNW,294,0.0,0.0,59,0.00,,,0.00,VWS V14.01,2013-03-21 04:54:00,
2013-03-21 00:55:00,24.1,11.8,29.47,WNW,294,0.0,0.0,59,0.00,,,0.00,VWS V14.01,2013-03-21 04:55:00,
2013-03-21 00:56:00,24.1,11.8,29.47,WNW,294,0.0,0.0,59,0.00,,,0.00,VWS V14.01,2013-03-21 04:56:00,
2013-03-21 00:57:00,24.1,11.8,29.47,WNW,294,0.0,0.0,59,0.00,,,0.00,VWS V14.01,2013-03-21 04:57:00,
2013-03-21 00:58:00,23.9,11.7,29.47,WNW,294,0.0,0.0,59,0.00,,,0.00,VWS V14.01,2013-03-21 04:58:00,
2013-03-21 00:59:00,23.9,11.7,29.47,WNW,294,0.0,0.0,59,0.00,,,0.00,VWS V14.01,2013-03-21 04:59:00,
2013-03-21 01:00:00,23.9,11.7,29.47,WNW,294,0.0,0.0,59,0.00,,,0.00,VWS V14.01,2013-03-21 05:00:00,
2013-03-21 01:01:00,23.9,11.7,29.47,WNW,294,0.0,0.0,59,0.00,,,0.00,VWS V14.01,2013-03-21 05:01:00,
2013-03-21 01:02:00,23.9,11.7,29.47,WNW,294,0.0,0.0,59,0.00,,,0.00,VWS V14.01,2013-03-21 05:02:00,
2013-03-21 01:03:00,23.9,11.7,29.47,WNW,294,0.0,0.0,59,0.00,,,0.00,VWS V14.01,2013-03-21 05:03:00,
2013-03-21 01:04:00,23.9,11.7,29.47,WNW,294,0.0,0.0,59,0.00,,,0.00,VWS V14.01,2013-03-21 05:04:00,
2013-03-21 01:05:00,23.9,11.7,29.47,WNW,294,0.0,0.0,59,0.00,,,0.00,VWS V14.01,2013-03-21 05:05:00,
2013-03-21 01:06:00,23.9,11.7,29.47,WNW,294,0.0,0.0,59,0.00,,,0.00,VWS V14.01,2013-03-21 05:06:00,
2013-03-21 01:07:00,23.9,11.7,29.47,WNW,294,0.0,0.0,59,0.00,,,0.00,VWS V14.01,2013-03-21 05:07:00,
2013-03-21 01:08:00,23.9,11.7,29.47,WNW,294,0.0,0.0,59,0.00,,,0.00,VWS V14.01,2013-03-21 05:08:00,
2013-03-21 01:09:00,23.9,11.7,29.47,WNW,294,0.0,0.0,59,0.00,,,0.00,VWS V14.01,2013-03-21 05:09:00,
2013-03-21 01:10:00,23.9,11.7,29.47,WNW,294,0.0,0.0,59,0.00,,,0.00,VWS V14.01,2013-03-21 05:10:00,
2013-03-21 01:11:00,23.9,11.7,29.47,WNW,294,0.0,0.0,59,0.00,,,0.00,VWS V14.01,2013-03-21 05:11:00,
2013-03-21 01:12:00,23.9,11.7,29.47,WNW,294,0.0,0.0,59,0.00,,,0.00,VWS V14.01,2013-03-21 05:12:00,
2013-03-21 01:13:00,23.9,11.7,29.47,WNW,294,0.0,0.0,59,0.00,,,0.00,VWS V14.01,2013-03-21 05:13:00,
2013-03-21 01:14:00,23.9,11.7,29.47,WNW,294,0.0,0.0,59,0.00,,,0.00,VWS V14.01,2013-03-21 05:14:00,
2013-03-21 01:15:00,23.5,11.7,29.47,WNW,294,0.0,0.0,60,0.00,,,0.00,VWS V14.01,2013-03-21 05:15:00,
2013-03-21 01:16:00,23.5,11.7,29.47,WNW,294,0.0,0.0,60,0.00,,,0.00,VWS V14.01,2013-03-21 05:16:00,
2013-03-21 01:17:00,23.5,11.7,29.47,WNW,294,0.0,0.0,60,0.00,,,0.00,VWS V14.01,2013-03-21 05:17:00,
2013-03-21 01:18:00,23.5,11.7,29.47,WNW,294,0.0,0.0,60,0.00,,,0.00,VWS V14.01,2013-03-21 05:18:00,
2013-03-21 01:19:00,23.5,11.7,29.47,WNW,294,0.0,0.0,60,0.00,,,0.00,VWS V14.01,2013-03-21 05:19:00,
2013-03-21 01:20:00,23.5,11.7,29.47,WNW,294,0.0,0.0,60,0.00,,,0.00,VWS V14.01,2013-03-21 05:20:00,
2013-03-21 01:21:00,23.5,11.7,29.47,WNW,294,0.0,0.0,60,0.00,,,0.00,VWS V14.01,2013-03-21 05:21:00,
2013-03-21 01:22:00,23.5,11.7,29.47,WNW,294,0.0,0.0,60,0.00,,,0.00,VWS V14.01,2013-03-21 05:22:00,
2013-03-21 01:23:00,23.5,11.7,29.47,WNW,294,0.0,0.0,60,0.00,,,0.00,VWS V14.01,2013-03-21 05:23:00,
2013-03-21 01:24:00,23.4,11.5,29.47,WNW,294,0.0,0.0,60,0.00,,,0.00,VWS V14.01,2013-03-21 05:24:00,
2013-03-21 01:25:00,23.4,11.5,29.50,WNW,294,0.0,0.0,60,0.00,,,0.00,VWS V14.01,2013-03-21 05:25:00,
2013-03-21 01:26:00,23.4,11.5,29.50,WNW,294,0.0,0.0,60,0.00,,,0.00,VWS V14.01,2013-03-21 05:26:00,
2013-03-21 01:27:00,23.4,11.5,29.50,WNW,294,0.0,0.0,60,0.00,,,0.00,VWS V14.01,2013-03-21 05:27:00,
2013-03-21 01:28:00,23.4,11.5,29.50,WNW,294,0.0,0.0,60,0.00,,,0.00,VWS V14.01,2013-03-21 05:28:00,
2013-03-21 01:29:00,23.4,11.5,29.50,WNW,294,0.0,0.0,60,0.00,,,0.00,VWS V14.01,2013-03-21 05:29:00,
2013-03-21 01:30:00,23.4,11.5,29.50,WNW,294,0.0,0.0,60,0.00,,,0.00,VWS V14.01,2013-03-21 05:30:00,
2013-03-21 01:31:00,23.4,11.5,29.50,WNW,294,0.0,0.0,60,0.00,,,0.00,VWS V14.01,2013-03-21 05:31:00,
2013-03-21 01:32:00,23.2,11.4,29.50,WNW,294,0.0,0.0,60,0.00,,,0.00,VWS V14.01,2013-03-21 05:32:00,
2013-03-21 01:33:00,23.2,11.4,29.50,WNW,294,0.0,0.0,60,0.00,,,0.00,VWS V14.01,2013-03-21 05:33:00,
2013-03-21 01:34:00,23.2,11.4,29.50,WNW,294,0.0,0.0,60,0.00,,,0.00,VWS V14.01,2013-03-21 05:34:00,
2013-03-21 01:35:00,23.2,11.4,29.50,WNW,294,0.0,0.0,60,0.00,,,0.00,VWS V14.01,2013-03-21 05:35:00,
2013-03-21 01:36:00,23.2,11.4,29.50,WNW,294,0.0,0.0,60,0.00,,,0.00,VWS V14.01,2013-03-21 05:36:00,
2013-03-21 01:37:00,23.2,11.4,29.50,WNW,294,0.0,0.0,60,0.00,,,0.00,VWS V14.01,2013-03-21 05:37:00,
2013-03-21 01:38:00,23.2,11.4,29.50,WNW,294,0.0,0.0,60,0.00,,,0.00,VWS V14.01,2013-03-21 05:38:00,
2013-03-21 01:39:00,23.2,11.4,29.50,WNW,294,0.0,0.0,60,0.00,,,0.00,VWS V14.01,2013-03-21 05:39:00,
2013-03-21 01:40:00,23.2,11.4,29.50,WNW,294,0.0,0.0,60,0.00,,,0.00,VWS V14.01,2013-03-21 05:40:00,
2013-03-21 01:41:00,23.0,11.6,29.50,WNW,294,0.0,0.0,61,0.00,,,0.00,VWS V14.01,2013-03-21 05:41:00,
2013-03-21 01:42:00,23.0,11.6,29.50,WNW,294,0.0,0.0,61,0.00,,,0.00,VWS V14.01,2013-03-21 05:42:00,
2013-03-21 01:43:00,23.0,11.6,29.50,WNW,294,0.0,0.0,61,0.00,,,0.00,VWS V14.01,2013-03-21 05:43:00,
2013-03-21 01:44:00,23.0,11.6,29.50,WNW,294,0.0,0.0,61,0.00,,,0.00,VWS V14.01,2013-03-21 05:44:00,
2013-03-21 01:45:00,23.0,11.6,29.50,WNW,294,0.0,0.0,61,0.00,,,0.00,VWS V14.01,2013-03-21 05:45:00,
2013-03-21 01:46:00,22.8,11.4,29.50,WNW,294,0.0,0.0,61,0.00,,,0.00,VWS V14.01,2013-03-21 05:46:00,
2013-03-21 01:47:00,22.8,11.4,29.50,WNW,294,0.0,0.0,61,0.00,,,0.00,VWS V14.01,2013-03-21 05:47:00,
2013-03-21 01:48:00,22.8,11.4,29.50,WNW,294,0.0,0.0,61,0.00,,,0.00,VWS V14.01,2013-03-21 05:48:00,
2013-03-21 01:49:00,22.8,11.4,29.50,WNW,294,0.0,0.0,61,0.00,,,0.00,VWS V14.01,2013-03-21 05:49:00,
2013-03-21 01:50:00,22.8,11.4,29.50,WNW,294,0.0,0.0,61,0.00,,,0.00,VWS V14.01,2013-03-21 05:50:00,
2013-03-21 01:51:00,22.8,11.4,29.50,WNW,294,0.0,0.0,61,0.00,,,0.00,VWS V14.01,2013-03-21 05:51:00,
2013-03-21 01:52:00,22.8,11.4,29.50,WNW,294,0.0,0.0,61,0.00,,,0.00,VWS V14.01,2013-03-21 05:52:00,
2013-03-21 01:53:00,22.8,11.4,29.50,WNW,294,0.0,0.0,61,0.00,,,0.00,VWS V14.01,2013-03-21 05:53:00,
2013-03-21 01:54:00,22.8,11.4,29.50,WNW,294,0.0,0.0,61,0.00,,,0.00,VWS V14.01,2013-03-21 05:54:00,
2013-03-21 01:55:00,22.8,11.4,29.50,WNW,294,0.0,0.0,61,0.00,,,0.00,VWS V14.01,2013-03-21 05:55:00,
2013-03-21 01:56:00,22.8,11.4,29.50,WNW,294,0.0,0.0,61,0.00,,,0.00,VWS V14.01,2013-03-21 05:56:00,
2013-03-21 01:57:00,22.8,11.4,29.50,WNW,294,0.0,0.0,61,0.00,,,0.00,VWS V14.01,2013-03-21 05:57:00,
2013-03-21 01:58:00,22.8,11.4,29.50,WNW,294,0.0,0.0,61,0.00,,,0.00,VWS V14.01,2013-03-21 05:58:00,
2013-03-21 01:59:00,22.8,11.4,29.50,WNW,294,0.0,0.0,61,0.00,,,0.00,VWS V14.01,2013-03-21 05:59:00,
2013-03-21 02:00:00,22.8,11.4,29.50,WNW,294,0.0,0.0,61,0.00,,,0.00,VWS V14.01,2013-03-21 06:00:00,
2013-03-21 02:01:00,22.6,11.6,29.50,WNW,294,0.0,0.0,62,0.00,,,0.00,VWS V14.01,2013-03-21 06:01:00,
2013-03-21 02:02:00,22.6,11.6,29.50,WNW,294,0.0,0.0,62,0.00,,,0.00,VWS V14.01,2013-03-21 06:02:00,
2013-03-21 02:03:00,22.5,11.4,29.50,WNW,294,0.0,0.0,62,0.00,,,0.00,VWS V14.01,2013-03-21 06:03:00,
2013-03-21 02:04:00,22.5,11.4,29.50,WNW,294,0.0,0.0,62,0.00,,,0.00,VWS V14.01,2013-03-21 06:04:00,
2013-03-21 02:05:00,22.5,11.4,29.50,WNW,294,0.0,0.0,62,0.00,,,0.00,VWS V14.01,2013-03-21 06:05:00,
2013-03-21 02:06:00,22.5,11.4,29.50,WNW,294,0.0,0.0,62,0.00,,,0.00,VWS V14.01,2013-03-21 06:06:00,
2013-03-21 02:07:00,22.5,11.4,29.50,WNW,294,0.0,0.0,62,0.00,,,0.00,VWS V14.01,2013-03-21 06:07:00,
2013-03-21 02:08:00,22.5,11.4,29.50,WNW,294,0.0,0.0,62,0.00,,,0.00,VWS V14.01,2013-03-21 06:08:00,
2013-03-21 02:09:00,22.5,11.4,29.50,WNW,294,0.0,0.0,62,0.00,,,0.00,VWS V14.01,2013-03-21 06:09:00,
2013-03-21 02:10:00,22.5,11.4,29.50,WNW,294,0.0,0.0,62,0.00,,,0.00,VWS V14.01,2013-03-21 06:10:00,
2013-03-21 02:11:00,22.5,11.4,29.50,WNW,294,0.0,0.0,62,0.00,,,0.00,VWS V14.01,2013-03-21 06:11:00,
2013-03-21 02:12:00,22.5,11.4,29.50,WNW,294,0.0,0.0,62,0.00,,,0.00,VWS V14.01,2013-03-21 06:12:00,
2013-03-21 02:13:00,22.5,11.4,29.50,WNW,294,0.0,0.0,62,0.00,,,0.00,VWS V14.01,2013-03-21 06:13:00,
2013-03-21 02:14:00,22.5,11.4,29.50,WNW,294,0.0,0.0,62,0.00,,,0.00,VWS V14.01,2013-03-21 06:14:00,
2013-03-21 02:15:00,22.5,11.4,29.50,WNW,294,0.0,0.0,62,0.00,,,0.00,VWS V14.01,2013-03-21 06:15:00,
2013-03-21 02:16:00,22.5,11.4,29.50,WNW,294,0.0,0.0,62,0.00,,,0.00,VWS V14.01,2013-03-21 06:16:00,
2013-03-21 02:17:00,22.5,11.8,29.50,WNW,294,0.0,0.0,63,0.00,,,0.00,VWS V14.01,2013-03-21 06:17:00,
2013-03-21 02:18:00,22.5,11.8,29.50,WNW,294,0.0,0.0,63,0.00,,,0.00,VWS V14.01,2013-03-21 06:18:00,
2013-03-21 02:19:00,22.5,11.8,29.50,WNW,294,0.0,0.0,63,0.00,,,0.00,VWS V14.01,2013-03-21 06:19:00,
2013-03-21 02:20:00,22.5,11.8,29.50,WNW,294,0.0,0.0,63,0.00,,,0.00,VWS V14.01,2013-03-21 06:20:00,
2013-03-21 02:21:00,22.5,11.8,29.50,WNW,294,0.0,0.0,63,0.00,,,0.00,VWS V14.01,2013-03-21 06:21:00,
2013-03-21 02:22:00,22.5,11.8,29.50,WNW,294,0.0,0.0,63,0.00,,,0.00,VWS V14.01,2013-03-21 06:22:00,
2013-03-21 02:23:00,22.5,11.8,29.50,WNW,294,0.0,0.0,63,0.00,,,0.00,VWS V14.01,2013-03-21 06:23:00,
2013-03-21 02:24:00,22.5,11.8,29.50,WNW,294,0.0,0.0,63,0.00,,,0.00,VWS V14.01,2013-03-21 06:24:00,
2013-03-21 02:25:00,22.5,11.8,29.50,WNW,294,0.0,0.0,63,0.00,,,0.00,VWS V14.01,2013-03-21 06:25:00,
2013-03-21 02:26:00,22.5,11.8,29.50,WNW,294,0.0,0.0,63,0.00,,,0.00,VWS V14.01,2013-03-21 06:26:00,
2013-03-21 02:27:00,22.5,11.8,29.47,WNW,294,0.0,0.0,63,0.00,,,0.00,VWS V14.01,2013-03-21 06:27:00,
2013-03-21 02:28:00,22.5,11.8,29.47,WNW,294,0.0,0.0,63,0.00,,,0.00,VWS V14.01,2013-03-21 06:28:00,
2013-03-21 02:29:00,22.5,11.8,29.47,WNW,294,0.0,0.0,63,0.00,,,0.00,VWS V14.01,2013-03-21 06:29:00,
2013-03-21 02:30:00,22.5,11.8,29.47,WNW,294,0.0,0.0,63,0.00,,,0.00,VWS V14.01,2013-03-21 06:30:00,
2013-03-21 02:31:00,22.5,11.8,29.47,WNW,294,0.0,0.0,63,0.00,,,0.00,VWS V14.01,2013-03-21 06:31:00,
2013-03-21 02:32:00,22.3,11.6,29.47,WNW,294,0.0,0.0,63,0.00,,,0.00,VWS V14.01,2013-03-21 06:32:00,
2013-03-21 02:33:00,22.3,11.6,29.47,WNW,294,0.0,0.0,63,0.00,,,0.00,VWS V14.01,2013-03-21 06:33:00,
2013-03-21 02:34:00,22.3,11.6,29.47,WNW,294,0.0,0.0,63,0.00,,,0.00,VWS V14.01,2013-03-21 06:34:00,
2013-03-21 02:35:00,22.3,11.6,29.47,WNW,294,0.0,0.0,63,0.00,,,0.00,VWS V14.01,2013-03-21 06:35:00,
2013-03-21 02:36:00,22.3,11.6,29.47,WNW,294,0.0,0.0,63,0.00,,,0.00,VWS V14.01,2013-03-21 06:36:00,
2013-03-21 02:37:00,22.3,11.6,29.47,WNW,294,0.0,0.0,63,0.00,,,0.00,VWS V14.01,2013-03-21 06:37:00,
2013-03-21 02:38:00,22.3,11.6,29.47,WNW,294,0.0,0.0,63,0.00,,,0.00,VWS V14.01,2013-03-21 06:38:00,
2013-03-21 02:39:00,22.3,11.6,29.47,WNW,294,0.0,0.0,63,0.00,,,0.00,VWS V14.01,2013-03-21 06:39:00,
2013-03-21 02:40:00,22.3,11.6,29.47,WNW,294,0.0,0.0,63,0.00,,,0.00,VWS V14.01,2013-03-21 06:40:00,
2013-03-21 02:41:00,22.3,12.0,29.47,WNW,294,0.0,0.0,64,0.00,,,0.00,VWS V14.01,2013-03-21 06:41:00,
2013-03-21 02:42:00,22.3,12.0,29.47,WNW,294,0.0,0.0,64,0.00,,,0.00,VWS V14.01,2013-03-21 06:42:00,
2013-03-21 02:43:00,22.3,12.0,29.47,WNW,294,0.0,0.0,64,0.00,,,0.00,VWS V14.01,2013-03-21 06:43:00,
2013-03-21 02:44:00,22.3,12.0,29.47,WNW,294,0.0,0.0,64,0.00,,,0.00,VWS V14.01,2013-03-21 06:44:00,
2013-03-21 02:45:00,22.3,12.0,29.47,WNW,294,0.0,0.0,64,0.00,,,0.00,VWS V14.01,2013-03-21 06:45:00,
2013-03-21 02:46:00,22.3,12.0,29.47,WNW,294,0.0,0.0,64,0.00,,,0.00,VWS V14.01,2013-03-21 06:46:00,
2013-03-21 02:47:00,22.3,12.0,29.47,WNW,294,0.0,0.0,64,0.00,,,0.00,VWS V14.01,2013-03-21 06:47:00,
2013-03-21 02:48:00,22.3,12.0,29.47,WNW,294,0.0,0.0,64,0.00,,,0.00,VWS V14.01,2013-03-21 06:48:00,
2013-03-21 02:49:00,22.3,12.0,29.47,WNW,294,0.0,0.0,64,0.00,,,0.00,VWS V14.01,2013-03-21 06:49:00,
2013-03-21 02:50:00,22.3,12.0,29.47,WNW,294,0.0,0.0,64,0.00,,,0.00,VWS V14.01,2013-03-21 06:50:00,
2013-03-21 02:51:00,22.3,12.0,29.47,WNW,294,0.0,0.0,64,0.00,,,0.00,VWS V14.01,2013-03-21 06:51:00,
2013-03-21 02:52:00,22.3,12.0,29.47,WNW,294,0.0,0.0,64,0.00,,,0.00,VWS V14.01,2013-03-21 06:52:00,
2013-03-21 02:53:00,22.3,12.0,29.47,WNW,294,0.0,0.0,64,0.00,,,0.00,VWS V14.01,2013-03-21 06:53:00,
2013-03-21 02:54:00,22.3,12.0,29.47,WNW,294,0.0,0.0,64,0.00,,,0.00,VWS V14.01,2013-03-21 06:54:00,
2013-03-21 02:55:00,22.3,12.0,29.47,WNW,294,0.0,0.0,64,0.00,,,0.00,VWS V14.01,2013-03-21 06:55:00,
2013-03-21 02:56:00,21.9,12.0,29.47,WNW,294,0.0,0.0,65,0.00,,,0.00,VWS V14.01,2013-03-21 06:56:00,
2013-03-21 02:58:00,21.9,12.0,29.47,WNW,294,0.0,0.0,65,0.00,,,0.00,VWS V14.01,2013-03-21 06:58:00,
2013-03-21 02:59:00,21.9,12.0,29.47,WNW,294,0.0,0.0,65,0.00,,,0.00,VWS V14.01,2013-03-21 06:59:00,
2013-03-21 03:00:00,21.9,12.0,29.47,WNW,294,0.0,0.0,65,0.00,,,0.00,VWS V14.01,2013-03-21 07:00:00,
2013-03-21 03:01:00,21.9,12.0,29.47,WNW,294,0.0,0.0,65,0.00,,,0.00,VWS V14.01,2013-03-21 07:01:00,
2013-03-21 03:02:00,21.9,12.0,29.47,WNW,294,0.0,0.0,65,0.00,,,0.00,VWS V14.01,2013-03-21 07:02:00,
2013-03-21 03:03:00,21.9,12.0,29.47,WNW,294,0.0,0.0,65,0.00,,,0.00,VWS V14.01,2013-03-21 07:03:00,
2013-03-21 03:04:00,21.9,12.0,29.47,WNW,294,0.0,0.0,65,0.00,,,0.00,VWS V14.01,2013-03-21 07:04:00,
2013-03-21 03:05:00,21.9,12.0,29.47,WNW,294,0.0,0.0,65,0.00,,,0.00,VWS V14.01,2013-03-21 07:05:00,
2013-03-21 03:06:00,21.9,12.0,29.47,WNW,294,0.0,0.0,65,0.00,,,0.00,VWS V14.01,2013-03-21 07:06:00,
2013-03-21 03:07:00,21.9,12.0,29.47,WNW,294,0.0,0.0,65,0.00,,,0.00,VWS V14.01,2013-03-21 07:07:00,
2013-03-21 03:08:00,21.9,12.0,29.47,WNW,294,0.0,0.0,65,0.00,,,0.00,VWS V14.01,2013-03-21 07:08:00,
2013-03-21 03:09:00,21.9,12.3,29.47,WNW,294,0.0,0.0,66,0.00,,,0.00,VWS V14.01,2013-03-21 07:09:00,
2013-03-21 03:10:00,21.9,12.3,29.47,WNW,294,0.0,0.0,66,0.00,,,0.00,VWS V14.01,2013-03-21 07:10:00,
2013-03-21 03:11:00,21.9,12.3,29.47,WNW,294,0.0,0.0,66,0.00,,,0.00,VWS V14.01,2013-03-21 07:11:00,
2013-03-21 03:12:00,21.9,12.3,29.47,WNW,294,0.0,0.0,66,0.00,,,0.00,VWS V14.01,2013-03-21 07:12:00,
2013-03-21 03:13:00,21.9,12.3,29.47,WNW,294,0.0,0.0,66,0.00,,,0.00,VWS V14.01,2013-03-21 07:13:00,
2013-03-21 03:14:00,21.9,12.3,29.47,WNW,294,0.0,0.0,66,0.00,,,0.00,VWS V14.01,2013-03-21 07:14:00,
2013-03-21 03:15:00,21.9,12.3,29.47,WNW,294,0.0,0.0,66,0.00,,,0.00,VWS V14.01,2013-03-21 07:15:00,
2013-03-21 03:16:00,21.9,12.3,29.47,WNW,294,0.0,0.0,66,0.00,,,0.00,VWS V14.01,2013-03-21 07:16:00,
2013-03-21 03:17:00,21.9,12.3,29.47,WNW,294,0.0,0.0,66,0.00,,,0.00,VWS V14.01,2013-03-21 07:17:00,
2013-03-21 03:18:00,21.9,12.3,29.47,WNW,294,0.0,0.0,66,0.00,,,0.00,VWS V14.01,2013-03-21 07:18:00,
2013-03-21 03:19:00,21.9,12.7,29.47,WNW,294,0.0,0.0,67,0.00,,,0.00,VWS V14.01,2013-03-21 07:19:00,
2013-03-21 03:20:00,21.9,12.7,29.47,WNW,294,0.0,0.0,67,0.00,,,0.00,VWS V14.01,2013-03-21 07:20:00,
2013-03-21 03:21:00,21.9,12.7,29.47,WNW,294,0.0,0.0,67,0.00,,,0.00,VWS V14.01,2013-03-21 07:21:00,
2013-03-21 03:22:00,21.9,12.7,29.47,WNW,294,0.0,0.0,67,0.00,,,0.00,VWS V14.01,2013-03-21 07:22:00,
2013-03-21 03:23:00,21.9,12.7,29.47,WNW,294,0.0,0.0,67,0.00,,,0.00,VWS V14.01,2013-03-21 07:23:00,
2013-03-21 03:24:00,21.9,12.7,29.47,WNW,294,0.0,0.0,67,0.00,,,0.00,VWS V14.01,2013-03-21 07:24:00,
2013-03-21 03:25:00,21.9,12.7,29.47,WNW,294,0.0,0.0,67,0.00,,,0.00,VWS V14.01,2013-03-21 07:25:00,
2013-03-21 03:26:00,21.9,12.7,29.47,WNW,294,0.0,0.0,67,0.00,,,0.00,VWS V14.01,2013-03-21 07:26:00,
2013-03-21 03:27:00,21.9,12.7,29.47,WNW,294,0.0,0.0,67,0.00,,,0.00,VWS V14.01,2013-03-21 07:27:00,
2013-03-21 03:28:00,21.7,12.5,29.47,WNW,294,0.0,0.0,67,0.00,,,0.00,VWS V14.01,2013-03-21 07:28:00,
2013-03-21 03:29:00,21.7,12.5,29.47,WNW,294,0.0,0.0,67,0.00,,,0.00,VWS V14.01,2013-03-21 07:29:00,
2013-03-21 03:30:00,21.7,12.5,29.47,WNW,294,0.0,0.0,67,0.00,,,0.00,VWS V14.01,2013-03-21 07:30:00,
2013-03-21 03:31:00,21.7,12.5,29.47,WNW,294,0.0,0.0,67,0.00,,,0.00,VWS V14.01,2013-03-21 07:31:00,
2013-03-21 03:32:00,21.7,12.5,29.47,WNW,294,0.0,0.0,67,0.00,,,0.00,VWS V14.01,2013-03-21 07:32:00,
2013-03-21 03:33:00,21.7,12.5,29.47,WNW,294,0.0,0.0,67,0.00,,,0.00,VWS V14.01,2013-03-21 07:33:00,
2013-03-21 03:34:00,21.7,12.5,29.47,WNW,294,0.0,0.0,67,0.00,,,0.00,VWS V14.01,2013-03-21 07:34:00,
2013-03-21 03:35:00,21.7,12.5,29.47,WNW,294,0.0,0.0,67,0.00,,,0.00,VWS V14.01,2013-03-21 07:35:00,
2013-03-21 03:36:00,21.7,12.5,29.47,WNW,294,0.0,0.0,67,0.00,,,0.00,VWS V14.01,2013-03-21 07:36:00,
2013-03-21 03:37:00,21.7,12.5,29.47,WNW,294,0.0,0.0,67,0.00,,,0.00,VWS V14.01,2013-03-21 07:37:00,
2013-03-21 03:38:00,21.7,12.5,29.47,WNW,294,0.0,0.0,67,0.00,,,0.00,VWS V14.01,2013-03-21 07:38:00,
2013-03-21 03:39:00,21.7,12.5,29.47,WNW,294,0.0,0.0,67,0.00,,,0.00,VWS V14.01,2013-03-21 07:39:00,
2013-03-21 03:40:00,21.6,12.6,29.47,WNW,294,0.0,0.0,68,0.00,,,0.00,VWS V14.01,2013-03-21 07:40:00,
2013-03-21 03:41:00,21.6,12.6,29.47,WNW,294,0.0,0.0,68,0.00,,,0.00,VWS V14.01,2013-03-21 07:41:00,
2013-03-21 03:42:00,21.6,12.6,29.47,WNW,294,0.0,0.0,68,0.00,,,0.00,VWS V14.01,2013-03-21 07:42:00,
2013-03-21 03:43:00,21.6,12.6,29.47,WNW,294,0.0,0.0,68,0.00,,,0.00,VWS V14.01,2013-03-21 07:43:00,
2013-03-21 03:44:00,21.6,12.6,29.47,WNW,294,0.0,0.0,68,0.00,,,0.00,VWS V14.01,2013-03-21 07:44:00,
2013-03-21 03:45:00,21.6,12.6,29.47,WNW,294,0.0,0.0,68,0.00,,,0.00,VWS V14.01,2013-03-21 07:45:00,
2013-03-21 03:46:00,21.6,12.6,29.47,WNW,294,0.0,0.0,68,0.00,,,0.00,VWS V14.01,2013-03-21 07:46:00,
2013-03-21 03:47:00,21.6,12.6,29.47,WNW,294,0.0,0.0,68,0.00,,,0.00,VWS V14.01,2013-03-21 07:47:00,
2013-03-21 03:48:00,21.7,12.8,29.47,WNW,294,0.0,0.0,68,0.00,,,0.00,VWS V14.01,2013-03-21 07:48:00,
2013-03-21 03:49:00,21.7,12.8,29.47,WNW,294,0.0,0.0,68,0.00,,,0.00,VWS V14.01,2013-03-21 07:49:00,
2013-03-21 03:50:00,21.7,12.8,29.47,WNW,294,0.0,0.0,68,0.00,,,0.00,VWS V14.01,2013-03-21 07:50:00,
2013-03-21 03:51:00,21.7,12.8,29.47,WNW,294,0.0,0.0,68,0.00,,,0.00,VWS V14.01,2013-03-21 07:51:00,
2013-03-21 03:52:00,21.7,12.8,29.47,WNW,294,0.0,0.0,68,0.00,,,0.00,VWS V14.01,2013-03-21 07:52:00,
2013-03-21 03:53:00,21.7,12.8,29.47,WNW,294,0.0,0.0,68,0.00,,,0.00,VWS V14.01,2013-03-21 07:53:00,
2013-03-21 03:54:00,21.7,12.8,29.47,WNW,294,0.0,0.0,68,0.00,,,0.00,VWS V14.01,2013-03-21 07:54:00,
2013-03-21 03:55:00,21.7,12.8,29.47,WNW,294,0.0,0.0,68,0.00,,,0.00,VWS V14.01,2013-03-21 07:55:00,
2013-03-21 03:56:00,21.7,12.8,29.47,WNW,294,0.0,0.0,68,0.00,,,0.00,VWS V14.01,2013-03-21 07:56:00,
2013-03-21 03:57:00,21.9,13.3,29.47,WNW,294,0.0,0.0,69,0.00,,,0.00,VWS V14.01,2013-03-21 07:57:00,
2013-03-21 03:58:00,21.9,13.3,29.47,WNW,294,0.0,0.0,69,0.00,,,0.00,VWS V14.01,2013-03-21 07:58:00,
2013-03-21 03:59:00,21.9,13.3,29.47,WNW,294,0.0,0.0,69,0.00,,,0.00,VWS V14.01,2013-03-21 07:59:00,
2013-03-21 04:00:00,21.9,13.3,29.47,WNW,294,0.0,0.0,69,0.00,,,0.00,VWS V14.01,2013-03-21 08:00:00,
2013-03-21 04:01:00,21.9,13.3,29.47,WNW,294,0.0,0.0,69,0.00,,,0.00,VWS V14.01,2013-03-21 08:01:00,
2013-03-21 04:02:00,21.9,13.3,29.47,WNW,294,0.0,0.0,69,0.00,,,0.00,VWS V14.01,2013-03-21 08:02:00,
2013-03-21 04:03:00,21.9,13.3,29.47,WNW,294,0.0,0.0,69,0.00,,,0.00,VWS V14.01,2013-03-21 08:03:00,
2013-03-21 04:04:00,21.9,13.3,29.47,WNW,294,0.0,0.0,69,0.00,,,0.00,VWS V14.01,2013-03-21 08:04:00,
2013-03-21 04:05:00,21.9,13.3,29.47,WNW,294,0.0,0.0,69,0.00,,,0.00,VWS V14.01,2013-03-21 08:05:00,
2013-03-21 04:06:00,21.9,13.3,29.47,WNW,294,0.0,0.0,69,0.00,,,0.00,VWS V14.01,2013-03-21 08:06:00,
2013-03-21 04:07:00,21.9,13.3,29.47,WNW,294,0.0,0.0,69,0.00,,,0.00,VWS V14.01,2013-03-21 08:07:00,
2013-03-21 04:08:00,21.9,13.3,29.47,WNW,294,0.0,0.0,69,0.00,,,0.00,VWS V14.01,2013-03-21 08:08:00,
2013-03-21 04:09:00,21.9,13.3,29.47,WNW,294,0.0,0.0,69,0.00,,,0.00,VWS V14.01,2013-03-21 08:09:00,
2013-03-21 04:10:00,21.9,13.3,29.47,WNW,294,0.0,0.0,69,0.00,,,0.00,VWS V14.01,2013-03-21 08:10:00,
2013-03-21 04:11:00,21.9,13.3,29.47,WNW,294,0.0,0.0,69,0.00,,,0.00,VWS V14.01,2013-03-21 08:11:00,
2013-03-21 04:12:00,21.9,13.3,29.47,WNW,294,0.0,0.0,69,0.00,,,0.00,VWS V14.01,2013-03-21 08:12:00,
2013-03-21 04:13:00,21.9,13.3,29.47,WNW,294,0.0,0.0,69,0.00,,,0.00,VWS V14.01,2013-03-21 08:13:00,
2013-03-21 04:14:00,21.9,13.3,29.47,WNW,294,0.0,0.0,69,0.00,,,0.00,VWS V14.01,2013-03-21 08:14:00,
2013-03-21 04:15:00,21.9,13.6,29.47,WNW,294,0.0,0.0,70,0.00,,,0.00,VWS V14.01,2013-03-21 08:15:00,
2013-03-21 04:16:00,21.9,13.6,29.47,WNW,294,0.0,0.0,70,0.00,,,0.00,VWS V14.01,2013-03-21 08:16:00,
2013-03-21 04:17:00,21.9,13.6,29.47,WNW,294,0.0,0.0,70,0.00,,,0.00,VWS V14.01,2013-03-21 08:17:00,
2013-03-21 04:18:00,21.9,13.6,29.47,WNW,294,0.0,0.0,70,0.00,,,0.00,VWS V14.01,2013-03-21 08:18:00,
2013-03-21 04:19:00,21.9,13.6,29.47,WNW,294,0.0,0.0,70,0.00,,,0.00,VWS V14.01,2013-03-21 08:19:00,
2013-03-21 04:20:00,21.9,13.6,29.47,WNW,294,0.0,0.0,70,0.00,,,0.00,VWS V14.01,2013-03-21 08:20:00,
2013-03-21 04:21:00,21.9,13.6,29.47,WNW,294,0.0,0.0,70,0.00,,,0.00,VWS V14.01,2013-03-21 08:21:00,
2013-03-21 04:22:00,21.9,13.6,29.47,WNW,294,0.0,0.0,70,0.00,,,0.00,VWS V14.01,2013-03-21 08:22:00,
2013-03-21 04:23:00,21.9,13.6,29.47,WNW,294,0.0,0.0,70,0.00,,,0.00,VWS V14.01,2013-03-21 08:23:00,
2013-03-21 04:24:00,21.9,13.6,29.47,WNW,294,0.0,0.0,70,0.00,,,0.00,VWS V14.01,2013-03-21 08:24:00,
2013-03-21 04:25:00,21.9,13.6,29.47,WNW,294,0.0,0.0,70,0.00,,,0.00,VWS V14.01,2013-03-21 08:25:00,
2013-03-21 04:26:00,21.9,13.6,29.47,WNW,294,0.0,0.0,70,0.00,,,0.00,VWS V14.01,2013-03-21 08:26:00,
2013-03-21 04:27:00,21.9,13.6,29.47,WNW,294,0.0,0.0,70,0.00,,,0.00,VWS V14.01,2013-03-21 08:27:00,
2013-03-21 04:28:00,21.9,13.6,29.47,WNW,294,0.0,0.0,70,0.00,,,0.00,VWS V14.01,2013-03-21 08:28:00,
2013-03-21 04:29:00,21.9,13.6,29.47,WNW,294,0.0,0.0,70,0.00,,,0.00,VWS V14.01,2013-03-21 08:29:00,
2013-03-21 04:30:00,21.9,13.6,29.47,WNW,294,0.0,0.0,70,0.00,,,0.00,VWS V14.01,2013-03-21 08:30:00,
2013-03-21 04:31:00,21.9,13.6,29.47,WNW,294,0.0,0.0,70,0.00,,,0.00,VWS V14.01,2013-03-21 08:31:00,
2013-03-21 04:32:00,21.9,13.6,29.47,WNW,294,0.0,0.0,70,0.00,,,0.00,VWS V14.01,2013-03-21 08:32:00,
2013-03-21 04:33:00,21.9,13.6,29.47,WNW,294,0.0,0.0,70,0.00,,,0.00,VWS V14.01,2013-03-21 08:33:00,
2013-03-21 04:34:00,21.9,13.6,29.47,WNW,294,0.0,0.0,70,0.00,,,0.00,VWS V14.01,2013-03-21 08:34:00,
2013-03-21 04:35:00,21.9,13.6,29.47,WNW,294,0.0,0.0,70,0.00,,,0.00,VWS V14.01,2013-03-21 08:35:00,
2013-03-21 04:36:00,21.9,13.6,29.47,WNW,294,0.0,0.0,70,0.00,,,0.00,VWS V14.01,2013-03-21 08:36:00,
2013-03-21 04:37:00,21.9,13.6,29.47,WNW,294,0.0,0.0,70,0.00,,,0.00,VWS V14.01,2013-03-21 08:37:00,
2013-03-21 04:38:00,21.9,13.6,29.47,WNW,294,0.0,0.0,70,0.00,,,0.00,VWS V14.01,2013-03-21 08:38:00,
2013-03-21 04:39:00,21.9,13.6,29.47,WNW,294,0.0,0.0,70,0.00,,,0.00,VWS V14.01,2013-03-21 08:39:00,
2013-03-21 04:40:00,21.9,13.6,29.47,WNW,294,0.0,0.0,70,0.00,,,0.00,VWS V14.01,2013-03-21 08:40:00,
2013-03-21 04:41:00,21.9,14.0,29.47,WNW,294,0.0,0.0,71,0.00,,,0.00,VWS V14.01,2013-03-21 08:41:00,
2013-03-21 04:42:00,21.9,14.0,29.47,WNW,294,0.0,0.0,71,0.00,,,0.00,VWS V14.01,2013-03-21 08:42:00,
2013-03-21 04:43:00,21.9,14.0,29.47,WNW,294,0.0,0.0,71,0.00,,,0.00,VWS V14.01,2013-03-21 08:43:00,
2013-03-21 04:44:00,21.9,14.0,29.47,WNW,294,0.0,0.0,71,0.00,,,0.00,VWS V14.01,2013-03-21 08:44:00,
2013-03-21 04:45:00,21.9,14.0,29.47,WNW,294,0.0,0.0,71,0.00,,,0.00,VWS V14.01,2013-03-21 08:45:00,
2013-03-21 04:46:00,21.9,14.0,29.47,WNW,294,0.0,0.0,71,0.00,,,0.00,VWS V14.01,2013-03-21 08:46:00,
2013-03-21 04:47:00,21.9,14.0,29.47,WNW,294,0.0,0.0,71,0.00,,,0.00,VWS V14.01,2013-03-21 08:47:00,
2013-03-21 04:48:00,21.9,14.0,29.47,WNW,294,0.0,0.0,71,0.00,,,0.00,VWS V14.01,2013-03-21 08:48:00,
2013-03-21 04:49:00,21.9,14.0,29.47,WNW,294,0.0,0.0,71,0.00,,,0.00,VWS V14.01,2013-03-21 08:49:00,
2013-03-21 04:50:00,21.9,14.0,29.47,WNW,294,0.0,0.0,71,0.00,,,0.00,VWS V14.01,2013-03-21 08:50:00,
2013-03-21 04:51:00,21.9,14.0,29.47,WNW,294,0.0,0.0,71,0.00,,,0.00,VWS V14.01,2013-03-21 08:51:00,
2013-03-21 04:52:00,21.9,14.0,29.47,WNW,294,0.0,0.0,71,0.00,,,0.00,VWS V14.01,2013-03-21 08:52:00,
2013-03-21 04:53:00,21.9,14.0,29.44,WNW,294,0.0,0.0,71,0.00,,,0.00,VWS V14.01,2013-03-21 08:53:00,
2013-03-21 04:54:00,21.9,14.0,29.44,WNW,294,0.0,0.0,71,0.00,,,0.00,VWS V14.01,2013-03-21 08:54:00,
2013-03-21 04:55:00,21.9,14.0,29.44,WNW,294,0.0,0.0,71,0.00,,,0.00,VWS V14.01,2013-03-21 08:55:00,
2013-03-21 04:56:00,21.9,14.0,29.44,WNW,294,0.0,0.0,71,0.00,,,0.00,VWS V14.01,2013-03-21 08:56:00,
2013-03-21 04:57:00,21.9,14.0,29.44,WNW,294,0.0,0.0,71,0.00,,,0.00,VWS V14.01,2013-03-21 08:57:00,
2013-03-21 04:58:00,21.9,14.0,29.44,WNW,294,0.0,0.0,71,0.00,,,0.00,VWS V14.01,2013-03-21 08:58:00,
2013-03-21 04:59:00,21.9,14.0,29.44,WNW,294,0.0,0.0,71,0.00,,,0.00,VWS V14.01,2013-03-21 08:59:00,
2013-03-21 05:00:00,21.9,14.0,29.44,WNW,294,0.0,0.0,71,0.00,,,0.00,VWS V14.01,2013-03-21 09:00:00,
2013-03-21 05:01:00,21.9,14.0,29.44,WNW,294,0.0,0.0,71,0.00,,,0.00,VWS V14.01,2013-03-21 09:01:00,
2013-03-21 05:02:00,21.9,14.0,29.44,WNW,294,0.0,0.0,71,0.00,,,0.00,VWS V14.01,2013-03-21 09:02:00,
2013-03-21 05:03:00,21.9,14.0,29.44,WNW,294,0.0,0.0,71,0.00,,,0.00,VWS V14.01,2013-03-21 09:03:00,
2013-03-21 05:04:00,21.9,14.0,29.44,WNW,294,0.0,0.0,71,0.00,,,0.00,VWS V14.01,2013-03-21 09:04:00,
2013-03-21 05:05:00,21.9,14.0,29.44,WNW,294,0.0,0.0,71,0.00,,,0.00,VWS V14.01,2013-03-21 09:05:00,
2013-03-21 05:06:00,21.9,14.3,29.44,WNW,294,0.0,0.0,72,0.00,,,0.00,VWS V14.01,2013-03-21 09:06:00,
2013-03-21 05:07:00,21.9,14.3,29.44,WNW,294,0.0,0.0,72,0.00,,,0.00,VWS V14.01,2013-03-21 09:07:00,
2013-03-21 05:08:00,21.9,14.3,29.44,WNW,294,0.0,0.0,72,0.00,,,0.00,VWS V14.01,2013-03-21 09:08:00,
2013-03-21 05:09:00,21.9,14.3,29.44,WNW,294,0.0,0.0,72,0.00,,,0.00,VWS V14.01,2013-03-21 09:09:00,
2013-03-21 05:10:00,21.9,14.3,29.44,WNW,294,0.0,0.0,72,0.00,,,0.00,VWS V14.01,2013-03-21 09:10:00,
2013-03-21 05:11:00,21.9,14.3,29.44,WNW,294,0.0,0.0,72,0.00,,,0.00,VWS V14.01,2013-03-21 09:11:00,
2013-03-21 05:12:00,21.9,14.3,29.44,WNW,294,0.0,0.0,72,0.00,,,0.00,VWS V14.01,2013-03-21 09:12:00,
2013-03-21 05:13:00,21.9,14.3,29.44,WNW,294,0.0,0.0,72,0.00,,,0.00,VWS V14.01,2013-03-21 09:13:00,
2013-03-21 05:14:00,21.9,14.3,29.44,WNW,294,0.0,0.0,72,0.00,,,0.00,VWS V14.01,2013-03-21 09:14:00,
2013-03-21 05:15:00,21.9,14.3,29.44,WNW,294,0.0,0.0,72,0.00,,,0.00,VWS V14.01,2013-03-21 09:15:00,
2013-03-21 05:16:00,21.9,14.3,29.44,WNW,294,0.0,0.0,72,0.00,,,0.00,VWS V14.01,2013-03-21 09:16:00,
2013-03-21 05:17:00,21.9,14.3,29.44,WNW,294,0.0,0.0,72,0.00,,,0.00,VWS V14.01,2013-03-21 09:17:00,
2013-03-21 05:18:00,21.9,14.3,29.44,WNW,294,0.0,0.0,72,0.00,,,0.00,VWS V14.01,2013-03-21 09:18:00,
2013-03-21 05:19:00,21.9,14.3,29.44,WNW,294,0.0,0.0,72,0.00,,,0.00,VWS V14.01,2013-03-21 09:19:00,
2013-03-21 05:20:00,21.9,14.3,29.44,WNW,294,0.0,0.0,72,0.00,,,0.00,VWS V14.01,2013-03-21 09:20:00,
2013-03-21 05:21:00,21.9,14.3,29.44,WNW,294,0.0,0.0,72,0.00,,,0.00,VWS V14.01,2013-03-21 09:21:00,
2013-03-21 05:22:00,21.9,14.3,29.44,WNW,294,0.0,0.0,72,0.00,,,0.00,VWS V14.01,2013-03-21 09:22:00,
2013-03-21 05:23:00,21.9,14.3,29.44,WNW,294,0.0,0.0,72,0.00,,,0.00,VWS V14.01,2013-03-21 09:23:00,
2013-03-21 05:24:00,21.9,14.6,29.44,WNW,294,0.0,0.0,73,0.00,,,0.00,VWS V14.01,2013-03-21 09:24:00,
2013-03-21 05:25:00,21.9,14.6,29.44,WNW,294,0.0,0.0,73,0.00,,,0.00,VWS V14.01,2013-03-21 09:25:00,
2013-03-21 05:26:00,21.9,14.6,29.44,WNW,294,0.0,0.0,73,0.00,,,0.00,VWS V14.01,2013-03-21 09:26:00,
2013-03-21 05:27:00,21.9,14.6,29.44,WNW,294,0.0,0.0,73,0.00,,,0.00,VWS V14.01,2013-03-21 09:27:00,
2013-03-21 05:28:00,21.9,14.6,29.44,WNW,294,0.0,0.0,73,0.00,,,0.00,VWS V14.01,2013-03-21 09:28:00,
2013-03-21 05:29:00,21.9,14.6,29.44,WNW,294,0.0,0.0,73,0.00,,,0.00,VWS V14.01,2013-03-21 09:29:00,
2013-03-21 05:30:00,21.9,14.6,29.44,WNW,294,0.0,0.0,73,0.00,,,0.00,VWS V14.01,2013-03-21 09:30:00,
2013-03-21 05:31:00,21.9,14.6,29.44,WNW,294,0.0,0.0,73,0.00,,,0.00,VWS V14.01,2013-03-21 09:31:00,
2013-03-21 05:32:00,21.9,14.6,29.44,WNW,294,0.0,0.0,73,0.00,,,0.00,VWS V14.01,2013-03-21 09:32:00,
2013-03-21 05:33:00,21.9,14.6,29.44,WNW,294,0.0,0.0,73,0.00,,,0.00,VWS V14.01,2013-03-21 09:33:00,
2013-03-21 05:34:00,22.3,14.9,29.44,WNW,294,0.0,0.0,73,0.00,,,0.00,VWS V14.01,2013-03-21 09:34:00,
2013-03-21 05:35:00,22.3,15.0,29.44,WNW,294,0.0,0.0,73,0.00,,,0.00,VWS V14.01,2013-03-21 09:35:00,
2013-03-21 05:36:00,22.3,14.9,29.44,WNW,294,0.0,0.0,73,0.00,,,0.00,VWS V14.01,2013-03-21 09:36:00,
2013-03-21 05:37:00,22.3,14.9,29.44,WNW,294,0.0,0.0,73,0.00,,,0.00,VWS V14.01,2013-03-21 09:37:00,
2013-03-21 05:38:00,22.3,14.9,29.44,WNW,294,0.0,0.0,73,0.00,,,0.00,VWS V14.01,2013-03-21 09:38:00,
2013-03-21 05:39:00,22.3,14.9,29.44,WNW,294,0.0,0.0,73,0.00,,,0.00,VWS V14.01,2013-03-21 09:39:00,
2013-03-21 05:40:00,22.3,15.0,29.44,WNW,294,0.0,0.0,73,0.00,,,0.00,VWS V14.01,2013-03-21 09:40:00,
2013-03-21 05:41:00,22.3,14.9,29.44,WNW,294,0.0,0.0,73,0.00,,,0.00,VWS V14.01,2013-03-21 09:41:00,
2013-03-21 05:42:00,22.3,14.9,29.44,WNW,294,0.0,0.0,73,0.00,,,0.00,VWS V14.01,2013-03-21 09:42:00,
2013-03-21 05:44:00,22.3,14.9,29.44,WNW,294,0.0,0.0,73,0.00,,,0.00,VWS V14.01,2013-03-21 09:44:00,
2013-03-21 05:45:00,22.3,15.0,29.44,WNW,294,0.0,0.0,73,0.00,,,0.00,VWS V14.01,2013-03-21 09:45:00,
2013-03-21 05:46:00,22.3,14.9,29.44,WNW,294,0.0,0.0,73,0.00,,,0.00,VWS V14.01,2013-03-21 09:46:00,
2013-03-21 05:47:00,22.3,14.9,29.44,WNW,294,0.0,0.0,73,0.00,,,0.00,VWS V14.01,2013-03-21 09:47:00,
2013-03-21 05:48:00,22.3,14.9,29.44,WNW,294,0.0,0.0,73,0.00,,,0.00,VWS V14.01,2013-03-21 09:48:00,
2013-03-21 05:49:00,22.3,14.9,29.44,WNW,294,0.0,0.0,73,0.00,,,0.00,VWS V14.01,2013-03-21 09:49:00,
2013-03-21 05:50:00,22.5,15.1,29.44,WNW,294,0.0,0.0,73,0.00,,,0.00,VWS V14.01,2013-03-21 09:50:00,
2013-03-21 05:51:00,22.5,15.1,29.44,WNW,294,0.0,0.0,73,0.00,,,0.00,VWS V14.01,2013-03-21 09:51:00,
2013-03-21 05:52:00,22.5,15.1,29.44,WNW,294,0.0,0.0,73,0.00,,,0.00,VWS V14.01,2013-03-21 09:52:00,
2013-03-21 05:53:00,22.5,15.4,29.44,WNW,294,0.0,0.0,74,0.00,,,0.00,VWS V14.01,2013-03-21 09:53:00,
2013-03-21 05:54:00,22.5,15.4,29.44,WNW,294,0.0,0.0,74,0.00,,,0.00,VWS V14.01,2013-03-21 09:54:00,
2013-03-21 05:55:00,22.5,15.4,29.44,WNW,294,0.0,0.0,74,0.00,,,0.00,VWS V14.01,2013-03-21 09:55:00,
2013-03-21 05:56:00,22.5,15.4,29.44,WNW,294,0.0,0.0,74,0.00,,,0.00,VWS V14.01,2013-03-21 09:56:00,
2013-03-21 05:57:00,22.5,15.4,29.44,WNW,294,0.0,0.0,74,0.00,,,0.00,VWS V14.01,2013-03-21 09:57:00,
2013-03-21 05:58:00,22.6,15.6,29.44,WNW,294,0.0,0.0,74,0.00,,,0.00,VWS V14.01,2013-03-21 09:58:00,
2013-03-21 05:59:00,22.6,15.6,29.44,WNW,294,0.0,0.0,74,0.00,,,0.00,VWS V14.01,2013-03-21 09:59:00,
2013-03-21 06:00:00,22.6,15.6,29.44,WNW,294,0.0,0.0,74,0.00,,,0.00,VWS V14.01,2013-03-21 10:00:00,
2013-03-21 06:01:00,22.6,15.6,29.44,WNW,294,0.0,0.0,74,0.00,,,0.00,VWS V14.01,2013-03-21 10:01:00,
2013-03-21 06:02:00,22.6,15.6,29.44,WNW,294,0.0,0.0,74,0.00,,,0.00,VWS V14.01,2013-03-21 10:02:00,
2013-03-21 06:03:00,22.8,15.8,29.44,WNW,294,0.0,0.0,74,0.00,,,0.00,VWS V14.01,2013-03-21 10:03:00,
2013-03-21 06:04:00,22.8,15.8,29.44,WNW,294,0.0,0.0,74,0.00,,,0.00,VWS V14.01,2013-03-21 10:04:00,
2013-03-21 06:05:00,22.8,15.8,29.44,WNW,294,0.0,0.0,74,0.00,,,0.00,VWS V14.01,2013-03-21 10:05:00,
2013-03-21 06:06:00,22.8,15.8,29.44,WNW,294,0.0,0.0,74,0.00,,,0.00,VWS V14.01,2013-03-21 10:06:00,
2013-03-21 06:07:00,22.8,15.8,29.44,WNW,294,0.0,0.0,74,0.00,,,0.00,VWS V14.01,2013-03-21 10:07:00,
2013-03-21 06:08:00,22.8,15.8,29.44,WNW,294,0.0,0.0,74,0.00,,,0.00,VWS V14.01,2013-03-21 10:08:00,
2013-03-21 06:09:00,22.8,15.8,29.44,WNW,294,0.0,0.0,74,0.00,,,0.00,VWS V14.01,2013-03-21 10:09:00,
2013-03-21 06:10:00,22.8,15.8,29.44,WNW,294,0.0,0.0,74,0.00,,,0.00,VWS V14.01,2013-03-21 10:10:00,
2013-03-21 06:11:00,22.8,15.8,29.44,WNW,294,0.0,0.0,74,0.00,,,0.00,VWS V14.01,2013-03-21 10:11:00,
2013-03-21 06:12:00,22.8,15.8,29.44,WNW,294,0.0,0.0,74,0.00,,,0.00,VWS V14.01,2013-03-21 10:12:00,
2013-03-21 06:13:00,22.8,15.8,29.44,WNW,294,0.0,0.0,74,0.00,,,0.00,VWS V14.01,2013-03-21 10:13:00,
2013-03-21 06:14:00,22.8,15.8,29.44,WNW,294,0.0,0.0,74,0.00,,,0.00,VWS V14.01,2013-03-21 10:14:00,
2013-03-21 06:15:00,22.8,15.8,29.44,WNW,294,0.0,0.0,74,0.00,,,0.00,VWS V14.01,2013-03-21 10:15:00,
2013-03-21 06:16:00,22.8,15.8,29.44,WNW,294,0.0,0.0,74,0.00,,,0.00,VWS V14.01,2013-03-21 10:16:00,
2013-03-21 06:17:00,22.8,15.8,29.44,WNW,294,0.0,0.0,74,0.00,,,0.00,VWS V14.01,2013-03-21 10:17:00,
2013-03-21 06:18:00,22.8,15.8,29.44,WNW,294,0.0,0.0,74,0.00,,,0.00,VWS V14.01,2013-03-21 10:18:00,
2013-03-21 06:19:00,22.8,15.8,29.44,WNW,294,0.0,0.0,74,0.00,,,0.00,VWS V14.01,2013-03-21 10:19:00,
2013-03-21 06:20:00,22.8,15.8,29.44,WNW,294,0.0,0.0,74,0.00,,,0.00,VWS V14.01,2013-03-21 10:20:00,
2013-03-21 06:21:00,22.8,15.8,29.44,WNW,294,0.0,0.0,74,0.00,,,0.00,VWS V14.01,2013-03-21 10:21:00,
2013-03-21 06:22:00,22.8,16.1,29.44,WNW,294,0.0,0.0,75,0.00,,,0.00,VWS V14.01,2013-03-21 10:22:00,
2013-03-21 06:23:00,22.8,16.1,29.44,WNW,294,0.0,0.0,75,0.00,,,0.00,VWS V14.01,2013-03-21 10:23:00,
2013-03-21 06:24:00,22.8,16.1,29.44,WNW,294,0.0,0.0,75,0.00,,,0.00,VWS V14.01,2013-03-21 10:24:00,
2013-03-21 06:25:00,22.8,16.1,29.47,WNW,294,0.0,0.0,75,0.00,,,0.00,VWS V14.01,2013-03-21 10:25:00,
2013-03-21 06:26:00,22.8,16.1,29.47,WNW,294,0.0,0.0,75,0.00,,,0.00,VWS V14.01,2013-03-21 10:26:00,
2013-03-21 06:27:00,22.8,16.1,29.47,WNW,294,0.0,0.0,75,0.00,,,0.00,VWS V14.01,2013-03-21 10:27:00,
2013-03-21 06:28:00,22.8,16.1,29.47,WNW,294,0.0,0.0,75,0.00,,,0.00,VWS V14.01,2013-03-21 10:28:00,
2013-03-21 06:29:00,22.8,16.1,29.47,WNW,294,0.0,0.0,75,0.00,,,0.00,VWS V14.01,2013-03-21 10:29:00,
2013-03-21 06:30:00,22.8,16.1,29.47,WNW,294,0.0,0.0,75,0.00,,,0.00,VWS V14.01,2013-03-21 10:30:00,
2013-03-21 06:31:00,22.8,16.1,29.47,WNW,294,0.0,0.0,75,0.00,,,0.00,VWS V14.01,2013-03-21 10:31:00,
2013-03-21 06:32:00,22.8,16.1,29.47,WNW,294,0.0,0.0,75,0.00,,,0.00,VWS V14.01,2013-03-21 10:32:00,
2013-03-21 06:33:00,23.0,16.3,29.47,WNW,294,0.0,0.0,75,0.00,,,0.00,VWS V14.01,2013-03-21 10:33:00,
2013-03-21 06:34:00,23.0,16.3,29.47,WNW,294,0.0,0.0,75,0.00,,,0.00,VWS V14.01,2013-03-21 10:34:00,
2013-03-21 06:35:00,23.0,16.3,29.47,WNW,294,0.0,0.0,75,0.00,,,0.00,VWS V14.01,2013-03-21 10:35:00,
2013-03-21 06:36:00,23.0,16.3,29.47,WNW,294,0.0,0.0,75,0.00,,,0.00,VWS V14.01,2013-03-21 10:36:00,
2013-03-21 06:37:00,23.0,16.3,29.47,WNW,294,0.0,0.0,75,0.00,,,0.00,VWS V14.01,2013-03-21 10:37:00,
2013-03-21 06:38:00,23.0,16.3,29.47,WNW,294,0.0,0.0,75,0.00,,,0.00,VWS V14.01,2013-03-21 10:38:00,
2013-03-21 06:39:00,23.0,16.3,29.47,WNW,294,0.0,0.0,75,0.00,,,0.00,VWS V14.01,2013-03-21 10:39:00,
2013-03-21 06:40:00,23.0,16.3,29.47,WNW,294,0.0,0.0,75,0.00,,,0.00,VWS V14.01,2013-03-21 10:40:00,
2013-03-21 06:41:00,23.0,16.3,29.47,WNW,294,0.0,0.0,75,0.00,,,0.00,VWS V14.01,2013-03-21 10:41:00,
2013-03-21 06:42:00,23.4,16.9,29.47,WNW,294,0.0,0.0,76,0.00,,,0.00,VWS V14.01,2013-03-21 10:42:00,
2013-03-21 06:43:00,23.4,16.9,29.47,WNW,294,0.0,0.0,76,0.00,,,0.00,VWS V14.01,2013-03-21 10:43:00,
2013-03-21 06:44:00,23.4,16.9,29.47,WNW,294,0.0,0.0,76,0.00,,,0.00,VWS V14.01,2013-03-21 10:44:00,
2013-03-21 06:45:00,23.4,16.9,29.47,WNW,294,0.0,0.0,76,0.00,,,0.00,VWS V14.01,2013-03-21 10:45:00,
2013-03-21 06:46:00,23.4,16.9,29.47,WNW,294,0.0,0.0,76,0.00,,,0.00,VWS V14.01,2013-03-21 10:46:00,
2013-03-21 06:47:00,23.4,16.9,29.47,WNW,294,0.0,0.0,76,0.00,,,0.00,VWS V14.01,2013-03-21 10:47:00,
2013-03-21 06:48:00,23.4,16.9,29.47,WNW,294,0.0,0.0,76,0.00,,,0.00,VWS V14.01,2013-03-21 10:48:00,
2013-03-21 06:49:00,23.4,16.9,29.47,WNW,294,0.0,0.0,76,0.00,,,0.00,VWS V14.01,2013-03-21 10:49:00,
2013-03-21 06:50:00,23.4,16.9,29.47,WNW,294,0.0,0.0,76,0.00,,,0.00,VWS V14.01,2013-03-21 10:50:00,
2013-03-21 06:51:00,23.4,16.9,29.47,WNW,294,0.0,0.0,76,0.00,,,0.00,VWS V14.01,2013-03-21 10:51:00,
2013-03-21 06:52:00,23.4,16.9,29.47,WNW,294,0.0,0.0,76,0.00,,,0.00,VWS V14.01,2013-03-21 10:52:00,
2013-03-21 06:53:00,23.4,16.9,29.47,WNW,294,0.0,0.0,76,0.00,,,0.00,VWS V14.01,2013-03-21 10:53:00,
2013-03-21 06:54:00,23.4,16.9,29.47,WNW,294,0.0,0.0,76,0.00,,,0.00,VWS V14.01,2013-03-21 10:54:00,
2013-03-21 06:55:00,23.4,16.9,29.47,WNW,294,0.0,0.0,76,0.00,,,0.00,VWS V14.01,2013-03-21 10:55:00,
2013-03-21 06:56:00,23.4,16.9,29.47,WNW,294,0.0,0.0,76,0.00,,,0.00,VWS V14.01,2013-03-21 10:56:00,
2013-03-21 06:57:00,23.4,16.9,29.47,WNW,294,0.0,0.0,76,0.00,,,0.00,VWS V14.01,2013-03-21 10:57:00,
2013-03-21 06:58:00,23.4,16.9,29.47,WNW,294,0.0,0.0,76,0.00,,,0.00,VWS V14.01,2013-03-21 10:58:00,
2013-03-21 06:59:00,23.7,17.3,29.47,WNW,294,0.0,0.0,76,0.00,,,0.00,VWS V14.01,2013-03-21 10:59:00,
2013-03-21 07:00:00,23.7,17.3,29.47,WNW,294,0.0,0.0,76,0.00,,,0.00,VWS V14.01,2013-03-21 11:00:00,
2013-03-21 07:01:00,23.7,17.3,29.47,WNW,294,0.0,0.0,76,0.00,,,0.00,VWS V14.01,2013-03-21 11:01:00,
2013-03-21 07:02:00,23.7,17.3,29.47,WNW,294,0.0,0.0,76,0.00,,,0.00,VWS V14.01,2013-03-21 11:02:00,
2013-03-21 07:05:00,23.7,17.3,29.47,WNW,294,0.0,0.0,76,0.00,,,0.00,VWS V14.01,2013-03-21 11:05:00,
2013-03-21 07:12:00,24.3,18.1,29.47,WNW,294,0.0,0.0,77,0.00,,,0.00,VWS V14.01,2013-03-21 11:12:00,
2013-03-21 07:17:00,24.4,18.6,29.47,WNW,294,0.0,0.0,78,0.00,,,0.00,VWS V14.01,2013-03-21 11:17:00,
2013-03-21 07:22:00,24.4,18.6,29.47,WNW,294,0.0,0.0,78,0.00,,,0.00,VWS V14.01,2013-03-21 11:22:00,
2013-03-21 07:27:00,24.6,18.8,29.47,WNW,294,0.0,0.0,78,0.00,,,0.00,VWS V14.01,2013-03-21 11:27:00,
2013-03-21 07:32:00,25.0,19.1,29.47,WNW,294,0.0,0.0,78,0.00,,,0.00,VWS V14.01,2013-03-21 11:32:00,
2013-03-21 07:37:00,25.2,19.3,29.47,WNW,294,0.0,0.0,78,0.00,,,0.00,VWS V14.01,2013-03-21 11:37:00,
2013-03-21 07:42:00,25.3,19.5,29.47,WNW,294,0.0,0.0,78,0.00,,,0.00,VWS V14.01,2013-03-21 11:42:00,
2013-03-21 07:47:00,25.7,19.8,29.47,WNW,294,0.0,0.0,78,0.00,,,0.00,VWS V14.01,2013-03-21 11:47:00,
2013-03-21 07:52:00,26.1,20.1,29.44,WNW,294,0.0,0.0,78,0.00,,,0.00,VWS V14.01,2013-03-21 11:52:00,
2013-03-21 07:57:00,26.2,20.6,29.44,WNW,294,0.0,0.0,79,0.00,,,0.00,VWS V14.01,2013-03-21 11:57:00,
2013-03-21 08:02:00,26.6,21.0,29.44,WNW,294,0.0,0.0,79,0.00,,,0.00,VWS V14.01,2013-03-21 12:02:00,
2013-03-21 08:07:00,27.0,21.0,29.44,WNW,294,0.0,0.0,78,0.00,,,0.00,VWS V14.01,2013-03-21 12:07:00,
2013-03-21 08:12:00,27.3,21.4,29.44,WNW,294,0.0,0.0,78,0.00,,,0.00,VWS V14.01,2013-03-21 12:12:00,
2013-03-21 08:17:00,27.7,22.0,29.44,WNW,294,0.0,0.0,79,0.00,,,0.00,VWS V14.01,2013-03-21 12:17:00,
2013-03-21 08:22:00,28.0,22.4,29.44,WNW,294,0.0,0.0,79,0.00,,,0.00,VWS V14.01,2013-03-21 12:22:00,
2013-03-21 08:27:00,28.6,22.9,29.44,WNW,294,0.0,0.0,79,0.00,,,0.00,VWS V14.01,2013-03-21 12:27:00,
2013-03-21 08:32:00,28.9,23.3,29.44,WNW,294,0.0,0.0,79,0.00,,,0.00,VWS V14.01,2013-03-21 12:32:00,
2013-03-21 08:37:00,28.9,23.0,29.44,WNW,294,0.0,0.0,78,0.00,,,0.00,VWS V14.01,2013-03-21 12:37:00,
2013-03-21 08:42:00,29.3,23.0,29.44,WNW,294,0.0,0.0,77,0.00,,,0.00,VWS V14.01,2013-03-21 12:42:00,
2013-03-21 08:47:00,29.5,22.9,29.44,WNW,294,0.0,0.0,76,0.00,,,0.00,VWS V14.01,2013-03-21 12:47:00,
2013-03-21 08:52:00,29.8,22.9,29.44,WNW,290,0.0,0.0,75,0.00,,,0.00,VWS V14.01,2013-03-21 12:52:00,
2013-03-21 08:57:00,30.0,22.8,29.44,West,276,0.0,0.0,74,0.00,,,0.00,VWS V14.01,2013-03-21 12:57:00,
2013-03-21 09:02:00,29.8,21.6,29.44,West,276,0.0,0.0,71,0.00,,,0.00,VWS V14.01,2013-03-21 13:02:00,
2013-03-21 09:07:00,30.2,20.2,29.44,West,276,0.0,0.0,66,0.00,,,0.00,VWS V14.01,2013-03-21 13:07:00,
2013-03-21 09:12:00,30.7,18.5,29.44,West,276,0.0,0.0,60,0.00,,,0.00,VWS V14.01,2013-03-21 13:12:00,
2013-03-21 09:17:00,30.9,16.7,29.44,North,0,0.0,0.0,55,0.00,,,0.00,VWS V14.01,2013-03-21 13:17:00,
2013-03-21 09:22:00,31.1,15.1,29.44,WNW,291,0.0,0.0,51,0.00,,,0.00,VWS V14.01,2013-03-21 13:22:00,
2013-03-21 09:27:00,32.0,15.0,29.44,WNW,290,0.0,0.0,49,0.00,,,0.00,VWS V14.01,2013-03-21 13:27:00,
2013-03-21 09:32:00,32.5,14.6,29.44,WNW,282,0.0,0.0,47,0.00,,,0.00,VWS V14.01,2013-03-21 13:32:00,
2013-03-21 09:37:00,32.4,13.9,29.44,West,281,0.0,0.0,46,0.00,,,0.00,VWS V14.01,2013-03-21 13:37:00,
2013-03-21 09:42:00,32.2,13.2,29.44,WSW,254,0.0,2.2,45,0.00,,,0.00,VWS V14.01,2013-03-21 13:42:00,
2013-03-21 09:47:00,32.2,12.2,29.44,WNW,295,0.0,0.0,43,0.00,,,0.00,VWS V14.01,2013-03-21 13:47:00,
2013-03-21 09:52:00,32.7,13.2,29.44,NW,307,0.0,0.0,44,0.00,,,0.00,VWS V14.01,2013-03-21 13:52:00,
2013-03-21 09:57:00,33.6,13.5,29.41,WNW,292,0.0,2.2,43,0.00,,,0.00,VWS V14.01,2013-03-21 13:57:00,
2013-03-21 10:02:00,34.3,13.6,29.41,NNE,16,0.0,0.0,42,0.00,,,0.00,VWS V14.01,2013-03-21 14:02:00,
2013-03-21 10:07:00,34.2,13.5,29.41,North,2,0.0,0.0,42,0.00,,,0.00,VWS V14.01,2013-03-21 14:07:00,
2013-03-21 10:12:00,34.2,14.0,29.41,North,2,0.0,0.0,43,0.00,,,0.00,VWS V14.01,2013-03-21 14:12:00,
2013-03-21 10:17:00,33.8,13.1,29.41,WNW,285,0.0,0.0,42,0.00,,,0.00,VWS V14.01,2013-03-21 14:17:00,
2013-03-21 10:22:00,33.3,13.2,29.41,WNW,285,0.0,0.0,43,0.00,,,0.00,VWS V14.01,2013-03-21 14:22:00,
2013-03-21 10:27:00,32.9,12.3,29.41,WNW,285,0.0,0.0,42,0.00,,,0.00,VWS V14.01,2013-03-21 14:27:00,
2013-03-21 10:32:00,32.5,12.0,29.41,WNW,285,0.0,0.0,42,0.00,,,0.00,VWS V14.01,2013-03-21 14:32:00,
2013-03-21 10:37:00,32.5,12.0,29.41,WNW,285,0.0,0.0,42,0.00,,,0.00,VWS V14.01,2013-03-21 14:37:00,
2013-03-21 10:42:00,32.5,12.0,29.41,WNW,285,0.0,0.0,42,0.00,,,0.00,VWS V14.01,2013-03-21 14:42:00,
2013-03-21 10:47:00,32.9,12.9,29.41,SSE,152,0.0,0.0,43,0.00,,,0.00,VWS V14.01,2013-03-21 14:47:00,
2013-03-21 10:52:00,33.1,12.5,29.41,SSE,156,0.0,0.0,42,0.00,,,0.00,VWS V14.01,2013-03-21 14:52:00,
2013-03-21 10:57:00,33.3,12.7,29.41,SSE,156,0.0,0.0,42,0.00,,,0.00,VWS V14.01,2013-03-21 14:57:00,
2013-03-21 11:02:00,33.3,12.7,29.41,NE,54,0.0,0.0,42,0.00,,,0.00,VWS V14.01,2013-03-21 15:02:00,
2013-03-21 11:07:00,33.3,12.7,29.41,NE,54,0.0,0.0,42,0.00,,,0.00,VWS V14.01,2013-03-21 15:07:00,
2013-03-21 11:12:00,33.3,12.7,29.41,North,9,0.0,0.0,42,0.00,,,0.00,VWS V14.01,2013-03-21 15:12:00,
2013-03-21 11:17:00,33.3,12.7,29.41,North,9,0.0,0.0,42,0.00,,,0.00,VWS V14.01,2013-03-21 15:17:00,
2013-03-21 11:22:00,33.3,12.1,29.41,WNW,286,0.0,0.0,41,0.00,,,0.00,VWS V14.01,2013-03-21 15:22:00,
2013-03-21 11:27:00,33.1,12.0,29.41,WNW,293,3.1,3.6,41,0.00,,,0.00,VWS V14.01,2013-03-21 15:27:00,
2013-03-21 11:32:00,32.5,12.0,29.41,SSW,203,0.0,0.0,42,0.00,,,0.00,VWS V14.01,2013-03-21 15:32:00,
2013-03-21 11:37:00,32.2,12.2,29.41,NW,320,3.6,3.6,43,0.00,,,0.00,VWS V14.01,2013-03-21 15:37:00,
2013-03-21 11:42:00,32.0,12.6,29.41,WNW,301,0.0,2.7,44,0.00,,,0.00,VWS V14.01,2013-03-21 15:42:00,
2013-03-21 11:47:00,32.2,12.7,29.41,SW,219,0.0,3.1,44,0.00,,,0.00,VWS V14.01,2013-03-21 15:47:00,
2013-03-21 11:52:00,32.7,13.2,29.38,SW,235,3.1,3.1,44,0.00,,,0.00,VWS V14.01,2013-03-21 15:52:00,
2013-03-21 11:57:00,33.1,14.1,29.38,West,271,3.1,3.1,45,0.00,,,0.00,VWS V14.01,2013-03-21 15:57:00,
2013-03-21 12:02:00,32.9,13.4,29.38,SSW,195,0.0,2.7,44,0.00,,,0.00,VWS V14.01,2013-03-21 16:02:00,
2013-03-21 12:07:00,32.7,13.2,29.38,South,185,0.0,0.0,44,0.00,,,0.00,VWS V14.01,2013-03-21 16:07:00,
2013-03-21 12:12:00,32.9,13.4,29.38,South,185,0.0,0.0,44,0.04,,,0.04,VWS V14.01,2013-03-21 16:12:00,
2013-03-21 12:17:00,33.3,14.2,29.38,SE,134,0.0,0.0,45,0.04,,,0.04,VWS V14.01,2013-03-21 16:17:00,
2013-03-21 12:22:00,33.4,13.9,29.38,South,176,0.0,0.0,44,0.04,,,0.04,VWS V14.01,2013-03-21 16:22:00,
2013-03-21 12:27:00,33.3,13.7,29.38,NW,312,0.0,0.0,44,0.04,,,0.04,VWS V14.01,2013-03-21 16:27:00,
2013-03-21 12:32:00,33.4,14.4,29.38,SE,141,2.2,3.1,45,0.04,,,0.04,VWS V14.01,2013-03-21 16:32:00,
2013-03-21 12:37:00,33.3,14.2,29.38,West,281,0.0,0.0,45,0.04,,,0.04,VWS V14.01,2013-03-21 16:37:00,
2013-03-21 12:42:00,33.3,14.2,29.38,NNE,30,0.0,0.0,45,0.04,,,0.04,VWS V14.01,2013-03-21 16:42:00,
2013-03-21 12:47:00,33.4,14.4,29.38,WSW,253,2.7,3.1,45,0.04,,,0.04,VWS V14.01,2013-03-21 16:47:00,
2013-03-21 12:52:00,33.8,14.7,29.35,SW,221,0.0,0.0,45,0.04,,,0.04,VWS V14.01,2013-03-21 16:52:00,
2013-03-21 12:57:00,34.2,15.1,29.35,East,86,0.0,0.0,45,0.04,,,0.04,VWS V14.01,2013-03-21 16:57:00,
2013-03-21 13:02:00,34.3,15.2,29.35,ENE,61,4.0,4.0,45,0.04,,,0.04,VWS V14.01,2013-03-21 17:02:00,
2013-03-21 13:07:00,34.2,14.5,29.35,South,187,0.0,0.0,44,0.04,,,0.04,VWS V14.01,2013-03-21 17:07:00,
2013-03-21 13:12:00,34.3,15.2,29.35,SSE,164,0.0,0.0,45,0.00,,,0.04,VWS V14.01,2013-03-21 17:12:00,
2013-03-21 13:17:00,34.5,14.9,29.35,SSE,168,0.0,0.0,44,0.00,,,0.04,VWS V14.01,2013-03-21 17:17:00,
2013-03-21 13:22:00,34.7,15.6,29.35,WSW,247,2.2,4.0,45,0.00,,,0.04,VWS V14.01,2013-03-21 17:22:00,
2013-03-21 13:27:00,34.9,15.7,29.35,ENE,64,0.0,0.0,45,0.00,,,0.04,VWS V14.01,2013-03-21 17:27:00,
2013-03-21 13:32:00,35.2,16.0,29.35,NW,325,0.0,0.0,45,0.00,,,0.04,VWS V14.01,2013-03-21 17:32:00,
2013-03-21 13:37:00,35.6,15.9,29.32,SE,126,2.7,2.7,44,0.00,,,0.04,VWS V14.01,2013-03-21 17:37:00,
2013-03-21 13:43:00,35.6,15.3,29.32,SE,145,0.0,2.2,43,0.00,,,0.04,VWS V14.01,2013-03-21 17:43:00,
2013-03-21 13:48:00,35.6,15.3,29.32,SW,217,0.0,0.0,43,0.00,,,0.04,VWS V14.01,2013-03-21 17:48:00,
2013-03-21 13:53:00,35.8,15.5,29.32,ESE,118,0.0,0.0,43,0.00,,,0.04,VWS V14.01,2013-03-21 17:53:00,
2013-03-21 13:58:00,35.8,15.5,29.32,SSE,150,0.0,0.0,43,0.00,,,0.04,VWS V14.01,2013-03-21 17:58:00,
2013-03-21 14:03:00,35.8,15.5,29.32,WNW,290,2.7,3.1,43,0.00,,,0.04,VWS V14.01,2013-03-21 18:03:00,
2013-03-21 14:08:00,35.8,15.5,29.32,SSE,166,3.6,5.4,43,0.00,,,0.04,VWS V14.01,2013-03-21 18:08:00,
2013-03-21 14:13:00,35.8,15.5,29.32,SW,221,0.0,0.0,43,0.00,,,0.04,VWS V14.01,2013-03-21 18:13:00,
2013-03-21 14:18:00,36.0,15.6,29.32,SSE,154,0.0,3.1,43,0.00,,,0.04,VWS V14.01,2013-03-21 18:18:00,
2013-03-21 14:23:00,36.1,15.8,29.32,WSW,256,0.0,0.0,43,0.00,,,0.04,VWS V14.01,2013-03-21 18:23:00,
2013-03-21 14:28:00,36.1,15.8,29.32,SSE,166,0.0,0.0,43,0.00,,,0.04,VWS V14.01,2013-03-21 18:28:00,
2013-03-21 14:33:00,36.5,16.1,29.32,SSE,154,0.0,0.0,43,0.00,,,0.04,VWS V14.01,2013-03-21 18:33:00,
2013-03-21 14:38:00,36.7,15.8,29.29,ESE,117,0.0,0.0,42,0.00,,,0.04,VWS V14.01,2013-03-21 18:38:00,
2013-03-21 14:43:00,36.7,15.8,29.29,NNW,345,0.0,0.0,42,0.00,,,0.04,VWS V14.01,2013-03-21 18:43:00,
2013-03-21 14:48:00,36.5,15.1,29.29,SSE,161,0.0,0.0,41,0.00,,,0.04,VWS V14.01,2013-03-21 18:48:00,
2013-03-21 14:53:00,36.3,14.9,29.29,NW,311,0.0,0.0,41,0.00,,,0.04,VWS V14.01,2013-03-21 18:53:00,
2013-03-21 14:58:00,36.3,14.9,29.29,SE,131,0.0,0.0,41,0.00,,,0.04,VWS V14.01,2013-03-21 18:58:00,
2013-03-21 15:03:00,36.5,15.1,29.29,SE,131,0.0,0.0,41,0.00,,,0.04,VWS V14.01,2013-03-21 19:03:00,
2013-03-21 15:08:00,36.7,15.8,29.29,SSE,165,0.0,0.0,42,0.00,,,0.04,VWS V14.01,2013-03-21 19:08:00,
2013-03-21 15:13:00,36.7,16.3,29.29,NNE,15,0.0,0.0,43,0.00,,,0.04,VWS V14.01,2013-03-21 19:13:00,
2013-03-21 15:18:00,36.3,16.0,29.29,SSE,157,0.0,0.0,43,0.00,,,0.04,VWS V14.01,2013-03-21 19:18:00,
2013-03-21 15:23:00,36.5,16.1,29.29,North,353,0.0,0.0,43,0.00,,,0.04,VWS V14.01,2013-03-21 19:23:00,
2013-03-21 15:28:00,36.1,16.9,29.29,NNW,327,4.0,4.0,45,0.00,,,0.04,VWS V14.01,2013-03-21 19:28:00,
2013-03-21 15:33:00,35.8,17.5,29.29,WNW,287,0.0,0.0,47,0.00,,,0.04,VWS V14.01,2013-03-21 19:33:00,
2013-03-21 15:38:00,35.6,17.9,29.29,SW,226,0.0,0.0,48,0.00,,,0.04,VWS V14.01,2013-03-21 19:38:00,
2013-03-21 15:43:00,35.4,18.2,29.29,NNE,18,0.0,0.0,49,0.00,,,0.04,VWS V14.01,2013-03-21 19:43:00,
2013-03-21 15:48:00,35.1,18.3,29.29,North,7,0.0,0.0,50,0.00,,,0.04,VWS V14.01,2013-03-21 19:48:00,
2013-03-21 15:53:00,34.7,18.0,29.29,NNE,28,0.0,0.0,50,0.00,,,0.04,VWS V14.01,2013-03-21 19:53:00,
2013-03-21 15:58:00,34.0,17.8,29.29,SE,139,0.0,0.0,51,0.00,,,0.04,VWS V14.01,2013-03-21 19:58:00,
2013-03-21 16:03:00,33.6,18.3,29.29,ESE,112,0.0,0.0,53,0.00,,,0.04,VWS V14.01,2013-03-21 20:03:00,
2013-03-21 16:08:00,33.3,18.4,29.26,ESE,112,0.0,0.0,54,0.00,,,0.04,VWS V14.01,2013-03-21 20:08:00,
2013-03-21 16:13:00,33.4,18.6,29.26,SE,124,0.0,0.0,54,0.00,,,0.04,VWS V14.01,2013-03-21 20:13:00,
2013-03-21 16:18:00,33.4,19.0,29.26,SSE,162,0.0,0.0,55,0.00,,,0.04,VWS V14.01,2013-03-21 20:18:00,
2013-03-21 16:23:00,33.3,19.7,29.26,SSE,163,0.0,0.0,57,0.00,,,0.04,VWS V14.01,2013-03-21 20:23:00,
2013-03-21 16:28:00,32.9,19.8,29.26,SSW,200,0.0,0.0,58,0.00,,,0.04,VWS V14.01,2013-03-21 20:28:00,
2013-03-21 16:33:00,32.9,19.8,29.26,SSW,200,0.0,0.0,58,0.00,,,0.04,VWS V14.01,2013-03-21 20:33:00,
2013-03-21 16:38:00,32.9,19.8,29.29,SE,145,2.7,2.7,58,0.00,,,0.04,VWS V14.01,2013-03-21 20:38:00,
2013-03-21 16:43:00,32.7,20.0,29.29,South,183,0.0,0.0,59,0.00,,,0.04,VWS V14.01,2013-03-21 20:43:00,
2013-03-21 16:48:00,32.5,20.2,29.29,SSE,166,0.0,0.0,60,0.00,,,0.04,VWS V14.01,2013-03-21 20:48:00,
2013-03-21 16:53:00,32.2,20.6,29.29,SSE,158,0.0,0.0,62,0.00,,,0.04,VWS V14.01,2013-03-21 20:53:00,
2013-03-21 16:58:00,31.8,20.7,29.29,ESE,104,0.0,0.0,63,0.00,,,0.04,VWS V14.01,2013-03-21 20:58:00,
2013-03-21 17:03:00,31.6,20.5,29.29,ESE,104,0.0,0.0,63,0.00,,,0.04,VWS V14.01,2013-03-21 21:03:00,
2013-03-21 17:08:00,31.5,20.7,29.26,ESE,104,0.0,0.0,64,0.00,,,0.04,VWS V14.01,2013-03-21 21:08:00,
2013-03-21 17:13:00,31.5,21.1,29.26,ESE,104,0.0,0.0,65,0.00,,,0.04,VWS V14.01,2013-03-21 21:13:00,
2013-03-21 17:18:00,31.3,20.9,29.26,ESE,104,0.0,0.0,65,0.00,,,0.04,VWS V14.01,2013-03-21 21:18:00,
2013-03-21 17:23:00,31.5,21.4,29.29,ESE,104,0.0,0.0,66,0.00,,,0.04,VWS V14.01,2013-03-21 21:23:00,
2013-03-21 17:28:00,31.5,21.4,29.29,ESE,104,0.0,0.0,66,0.00,,,0.04,VWS V14.01,2013-03-21 21:28:00,
2013-03-21 17:33:00,31.5,21.4,29.29,ESE,104,0.0,0.0,66,0.00,,,0.04,VWS V14.01,2013-03-21 21:33:00,
2013-03-21 17:38:00,31.5,21.8,29.29,ESE,104,0.0,0.0,67,0.00,,,0.04,VWS V14.01,2013-03-21 21:38:00,
2013-03-21 17:43:00,31.6,22.0,29.29,ESE,104,0.0,0.0,67,0.00,,,0.04,VWS V14.01,2013-03-21 21:43:00,
2013-03-21 17:48:00,31.6,22.0,29.29,ESE,104,0.0,0.0,67,0.00,,,0.04,VWS V14.01,2013-03-21 21:48:00,
2013-03-21 17:53:00,31.6,22.3,29.29,ESE,104,0.0,0.0,68,0.00,,,0.04,VWS V14.01,2013-03-21 21:53:00,
2013-03-21 17:58:00,31.6,22.3,29.29,ESE,104,0.0,0.0,68,0.00,,,0.04,VWS V14.01,2013-03-21 21:58:00,
2013-03-21 18:03:00,31.5,22.5,29.29,ESE,104,0.0,0.0,69,0.00,,,0.04,VWS V14.01,2013-03-21 22:03:00,
2013-03-21 18:08:00,31.5,22.8,29.29,ESE,104,0.0,0.0,70,0.00,,,0.04,VWS V14.01,2013-03-21 22:08:00,
2013-03-21 18:13:00,31.3,22.6,29.29,ESE,104,0.0,0.0,70,0.00,,,0.04,VWS V14.01,2013-03-21 22:13:00,
2013-03-21 18:18:00,31.3,23.0,29.29,ESE,104,0.0,0.0,71,0.00,,,0.04,VWS V14.01,2013-03-21 22:18:00,
2013-03-21 18:23:00,31.3,23.0,29.29,ESE,104,0.0,0.0,71,0.00,,,0.04,VWS V14.01,2013-03-21 22:23:00,
2013-03-21 18:28:00,31.1,23.1,29.29,ESE,104,0.0,0.0,72,0.00,,,0.04,VWS V14.01,2013-03-21 22:28:00,
2013-03-21 18:33:00,31.1,23.1,29.29,ESE,104,0.0,0.0,72,0.00,,,0.04,VWS V14.01,2013-03-21 22:33:00,
2013-03-21 18:38:00,31.1,23.1,29.29,ESE,104,0.0,0.0,72,0.00,,,0.04,VWS V14.01,2013-03-21 22:38:00,
2013-03-21 18:43:00,31.3,23.3,29.29,ESE,104,0.0,0.0,72,0.00,,,0.04,VWS V14.01,2013-03-21 22:43:00,
2013-03-21 18:48:00,31.3,23.6,29.29,ESE,104,0.0,0.0,73,0.00,,,0.04,VWS V14.01,2013-03-21 22:48:00,
2013-03-21 18:53:00,31.3,23.6,29.29,ESE,104,0.0,0.0,73,0.00,,,0.04,VWS V14.01,2013-03-21 22:53:00,
2013-03-21 18:58:00,31.3,23.6,29.29,ESE,104,0.0,0.0,73,0.00,,,0.04,VWS V14.01,2013-03-21 22:58:00,
2013-03-21 19:03:00,31.3,23.6,29.29,ESE,104,0.0,0.0,73,0.00,,,0.04,VWS V14.01,2013-03-21 23:03:00,
2013-03-21 19:08:00,31.1,23.8,29.29,ESE,104,0.0,0.0,74,0.00,,,0.04,VWS V14.01,2013-03-21 23:08:00,
2013-03-21 19:13:00,31.1,23.8,29.29,ESE,104,0.0,0.0,74,0.00,,,0.04,VWS V14.01,2013-03-21 23:13:00,
2013-03-21 19:18:00,31.1,23.8,29.29,South,188,0.0,0.0,74,0.00,,,0.04,VWS V14.01,2013-03-21 23:18:00,
2013-03-21 19:23:00,31.1,24.1,29.29,South,188,0.0,0.0,75,0.00,,,0.04,VWS V14.01,2013-03-21 23:23:00,
2013-03-21 19:28:00,31.3,24.3,29.29,South,188,0.0,0.0,75,0.00,,,0.04,VWS V14.01,2013-03-21 23:28:00,
2013-03-21 19:33:00,31.3,24.3,29.29,ESE,102,0.0,0.0,75,0.00,,,0.04,VWS V14.01,2013-03-21 23:33:00,
2013-03-21 19:38:00,31.5,24.5,29.29,ESE,114,0.0,0.0,75,0.00,,,0.04,VWS V14.01,2013-03-21 23:38:00,
2013-03-21 19:43:00,31.5,24.8,29.29,SSE,150,0.0,0.0,76,0.00,,,0.04,VWS V14.01,2013-03-21 23:43:00,
2013-03-21 19:48:00,31.5,24.8,29.29,ESE,108,0.0,0.0,76,0.00,,,0.04,VWS V14.01,2013-03-21 23:48:00,
2013-03-21 19:53:00,31.6,25.0,29.29,ESE,108,0.0,0.0,76,0.00,,,0.04,VWS V14.01,2013-03-21 23:53:00,
2013-03-21 19:58:00,31.6,25.3,29.29,ESE,118,0.0,0.0,77,0.00,,,0.04,VWS V14.01,2013-03-21 23:58:00,
2013-03-21 20:03:00,31.6,25.3,29.29,SE,130,0.0,0.0,77,0.00,,,0.04,VWS V14.01,2013-03-22 00:03:00,
2013-03-21 20:08:00,31.6,25.3,29.29,SE,130,0.0,0.0,77,0.00,,,0.04,VWS V14.01,2013-03-22 00:08:00,
2013-03-21 20:13:00,31.6,25.6,29.29,SE,130,0.0,0.0,78,0.00,,,0.04,VWS V14.01,2013-03-22 00:13:00,
2013-03-21 20:18:00,31.6,25.6,29.29,East,95,2.2,4.0,78,0.00,,,0.04,VWS V14.01,2013-03-22 00:18:00,
2013-03-21 20:23:00,31.6,25.6,29.29,SE,141,3.1,4.5,78,0.00,,,0.04,VWS V14.01,2013-03-22 00:23:00,
2013-03-21 20:28:00,31.6,25.9,29.29,SSE,160,0.0,0.0,79,0.00,,,0.04,VWS V14.01,2013-03-22 00:28:00,
2013-03-21 20:33:00,31.8,26.1,29.29,East,99,0.0,0.0,79,0.00,,,0.04,VWS V14.01,2013-03-22 00:33:00,
2013-03-21 20:38:00,31.8,26.4,29.29,East,99,0.0,0.0,80,0.00,,,0.04,VWS V14.01,2013-03-22 00:38:00,
2013-03-21 20:43:00,31.8,26.4,29.29,East,99,0.0,0.0,80,0.00,,,0.04,VWS V14.01,2013-03-22 00:43:00,
2013-03-21 20:48:00,31.8,26.4,29.29,East,99,0.0,0.0,80,0.00,,,0.04,VWS V14.01,2013-03-22 00:48:00,
2013-03-21 20:53:00,31.8,26.4,29.29,East,99,0.0,0.0,80,0.00,,,0.04,VWS V14.01,2013-03-22 00:53:00,
2013-03-21 20:58:00,31.6,26.2,29.29,East,99,0.0,0.0,80,0.00,,,0.04,VWS V14.01,2013-03-22 00:58:00,
2013-03-21 21:03:00,31.6,26.2,29.29,East,99,0.0,0.0,80,0.00,,,0.04,VWS V14.01,2013-03-22 01:03:00,
2013-03-21 21:08:00,31.6,25.9,29.29,East,99,0.0,0.0,79,0.00,,,0.04,VWS V14.01,2013-03-22 01:08:00,
2013-03-21 21:13:00,31.5,25.7,29.29,East,99,0.0,0.0,79,0.00,,,0.04,VWS V14.01,2013-03-22 01:13:00,
2013-03-21 21:18:00,31.5,25.7,29.29,East,99,0.0,0.0,79,0.00,,,0.04,VWS V14.01,2013-03-22 01:18:00,
2013-03-21 21:23:00,31.5,25.7,29.29,East,99,0.0,0.0,79,0.00,,,0.04,VWS V14.01,2013-03-22 01:23:00,
2013-03-21 21:28:00,31.5,25.7,29.29,East,99,0.0,0.0,79,0.00,,,0.04,VWS V14.01,2013-03-22 01:28:00,
2013-03-21 21:33:00,31.5,25.7,29.29,East,99,0.0,0.0,79,0.00,,,0.04,VWS V14.01,2013-03-22 01:33:00,
2013-03-21 21:38:00,31.5,26.0,29.29,East,99,0.0,0.0,80,0.00,,,0.04,VWS V14.01,2013-03-22 01:38:00,
2013-03-21 21:43:00,31.5,26.0,29.29,East,99,0.0,0.0,80,0.00,,,0.04,VWS V14.01,2013-03-22 01:43:00,
2013-03-21 21:48:00,31.5,26.0,29.29,East,99,0.0,0.0,80,0.00,,,0.04,VWS V14.01,2013-03-22 01:48:00,
2013-03-21 21:53:00,31.5,26.3,29.29,East,99,0.0,0.0,81,0.00,,,0.04,VWS V14.01,2013-03-22 01:53:00,
2013-03-21 21:58:00,31.5,26.3,29.29,East,99,0.0,0.0,81,0.00,,,0.04,VWS V14.01,2013-03-22 01:58:00,
2013-03-21 22:03:00,31.3,26.1,29.29,East,99,0.0,0.0,81,0.00,,,0.04,VWS V14.01,2013-03-22 02:03:00,
2013-03-21 22:08:00,31.1,26.0,29.29,East,99,0.0,0.0,81,0.00,,,0.04,VWS V14.01,2013-03-22 02:08:00,
2013-03-21 22:13:00,30.9,25.8,29.29,East,99,0.0,0.0,81,0.00,,,0.04,VWS V14.01,2013-03-22 02:13:00,
2013-03-21 22:18:00,30.7,25.6,29.29,East,99,0.0,0.0,81,0.00,,,0.04,VWS V14.01,2013-03-22 02:18:00,
2013-03-21 22:23:00,30.4,25.0,29.29,East,99,0.0,0.0,80,0.00,,,0.04,VWS V14.01,2013-03-22 02:23:00,
2013-03-21 22:28:00,30.2,25.1,29.29,East,99,0.0,0.0,81,0.00,,,0.04,VWS V14.01,2013-03-22 02:28:00,
2013-03-21 22:33:00,30.2,25.1,29.29,East,99,0.0,0.0,81,0.00,,,0.04,VWS V14.01,2013-03-22 02:33:00,
2013-03-21 22:38:00,30.0,24.9,29.29,East,99,0.0,0.0,81,0.00,,,0.04,VWS V14.01,2013-03-22 02:38:00,
2013-03-21 22:43:00,29.8,24.4,29.29,East,99,0.0,0.0,80,0.00,,,0.04,VWS V14.01,2013-03-22 02:43:00,
2013-03-21 22:48:00,29.7,24.3,29.29,East,99,0.0,0.0,80,0.00,,,0.04,VWS V14.01,2013-03-22 02:48:00,
2013-03-21 22:53:00,29.5,24.1,29.29,East,99,0.0,0.0,80,0.00,,,0.04,VWS V14.01,2013-03-22 02:53:00,
2013-03-21 22:58:00,29.3,24.2,29.29,East,99,0.0,0.0,81,0.00,,,0.04,VWS V14.01,2013-03-22 02:58:00,
2013-03-21 23:03:00,29.3,24.2,29.29,East,99,0.0,0.0,81,0.00,,,0.04,VWS V14.01,2013-03-22 03:03:00,
2013-03-21 23:08:00,29.1,24.0,29.29,East,99,0.0,0.0,81,0.00,,,0.04,VWS V14.01,2013-03-22 03:08:00,
2013-03-21 23:13:00,28.9,23.9,29.29,East,99,0.0,0.0,81,0.00,,,0.04,VWS V14.01,2013-03-22 03:13:00,
2013-03-21 23:18:00,28.9,23.9,29.29,East,99,0.0,0.0,81,0.00,,,0.04,VWS V14.01,2013-03-22 03:18:00,
2013-03-21 23:23:00,28.9,23.9,29.29,East,99,0.0,0.0,81,0.00,,,0.04,VWS V14.01,2013-03-22 03:23:00,
2013-03-21 23:28:00,28.9,23.9,29.29,East,99,0.0,0.0,81,0.00,,,0.04,VWS V14.01,2013-03-22 03:28:00,
2013-03-21 23:33:00,28.9,23.9,29.29,East,99,0.0,0.0,81,0.00,,,0.04,VWS V14.01,2013-03-22 03:33:00,
2013-03-21 23:38:00,29.1,24.0,29.29,East,99,0.0,0.0,81,0.00,,,0.04,VWS V14.01,2013-03-22 03:38:00,
2013-03-21 23:43:00,29.1,24.0,29.29,East,99,0.0,0.0,81,0.00,,,0.04,VWS V14.01,2013-03-22 03:43:00,
2013-03-21 23:48:00,29.1,24.0,29.29,East,99,0.0,0.0,81,0.00,,,0.04,VWS V14.01,2013-03-22 03:48:00,
2013-03-21 23:53:00,29.1,24.0,29.29,East,99,0.0,0.0,81,0.00,,,0.04,VWS V14.01,2013-03-22 03:53:00,
2013-03-21 23:58:00,28.9,23.9,29.29,East,99,0.0,0.0,81,0.00,,,0.04,VWS V14.01,2013-03-22 03:58:00,